Time,TemperatureF,DewpointF,PressureIn,WindDirection,WindDirectionDegrees,WindSpeedMPH,WindSpeedGustMPH,Humidity,HourlyPrecipIn,Conditions,Clouds,dailyrainin,SoftwareType,DateUTC
2013-04-24 00:00:00,73.7,67.9,29.96,SSE,161,11.0,21.0,82,0.00,,,0.00,Wunderground v.1.15,2013-04-24 04:00:00,
2013-04-24 00:01:00,73.7,67.9,29.95,SSE,167,16.0,18.0,82,0.00,,,0.00,Wunderground v.1.15,2013-04-24 04:01:00,
2013-04-24 00:02:00,73.7,67.9,29.96,South,177,14.0,18.0,82,0.00,,,0.00,Wunderground v.1.15,2013-04-24 04:02:00,
2013-04-24 00:04:00,73.6,67.8,29.96,South,186,6.0,18.0,82,0.00,,,0.00,Wunderground v.1.15,2013-04-24 04:04:00,
2013-04-24 00:06:00,73.6,67.8,29.96,SSE,164,6.0,18.0,82,0.00,,,0.00,Wunderground v.1.15,2013-04-24 04:06:00,
2013-04-24 00:07:00,73.6,67.8,29.96,SSE,163,8.0,18.0,82,0.00,,,0.00,Wunderground v.1.15,2013-04-24 04:07:00,
2013-04-24 00:10:00,73.6,67.8,29.96,SSE,165,8.0,11.0,82,0.00,,,0.00,Wunderground v.1.15,2013-04-24 04:10:00,
2013-04-24 00:12:00,73.6,67.8,29.96,SSE,167,10.0,12.0,82,0.00,,,0.00,Wunderground v.1.15,2013-04-24 04:12:00,
2013-04-24 00:13:00,73.5,67.7,29.95,SSE,164,14.0,14.0,82,0.00,,,0.00,Wunderground v.1.15,2013-04-24 04:13:00,
2013-04-24 00:14:00,73.5,67.7,29.95,SSE,167,7.0,14.0,82,0.00,,,0.00,Wunderground v.1.15,2013-04-24 04:14:00,
2013-04-24 00:15:00,73.5,67.7,29.95,SSW,209,9.0,14.0,82,0.00,,,0.00,Wunderground v.1.15,2013-04-24 04:15:00,
2013-04-24 00:19:00,73.4,67.2,29.95,SSE,158,14.0,14.0,81,0.00,,,0.00,Wunderground v.1.15,2013-04-24 04:19:00,
2013-04-24 00:21:00,73.5,67.3,29.95,South,172,9.0,13.0,81,0.00,,,0.00,Wunderground v.1.15,2013-04-24 04:21:00,
2013-04-24 00:22:00,73.5,67.3,29.95,SSW,200,12.0,13.0,81,0.00,,,0.00,Wunderground v.1.15,2013-04-24 04:22:00,
2013-04-24 00:23:00,73.5,67.7,29.95,WSW,256,10.0,13.0,82,0.00,,,0.00,Wunderground v.1.15,2013-04-24 04:23:00,
2013-04-24 00:25:00,73.5,67.7,29.95,SSE,157,6.0,13.0,82,0.00,,,0.00,Wunderground v.1.15,2013-04-24 04:25:00,
2013-04-24 00:28:00,73.5,67.7,29.95,South,170,8.0,13.0,82,0.00,,,0.00,Wunderground v.1.15,2013-04-24 04:28:00,
2013-04-24 00:31:00,73.4,67.6,29.95,SSW,196,8.0,14.0,82,0.00,,,0.00,Wunderground v.1.15,2013-04-24 04:31:00,
2013-04-24 00:32:00,73.5,68.0,29.95,SSW,200,16.0,16.0,83,0.00,,,0.00,Wunderground v.1.15,2013-04-24 04:32:00,
2013-04-24 00:37:00,73.5,68.0,29.95,SSE,159,11.0,16.0,83,0.00,,,0.00,Wunderground v.1.15,2013-04-24 04:37:00,
2013-04-24 00:38:00,73.4,67.9,29.95,South,186,7.0,16.0,83,0.00,,,0.00,Wunderground v.1.15,2013-04-24 04:38:00,
2013-04-24 00:40:00,73.4,67.9,29.95,South,171,12.0,12.0,83,0.00,,,0.00,Wunderground v.1.15,2013-04-24 04:40:00,
2013-04-24 00:41:00,73.5,68.0,29.95,South,181,10.0,12.0,83,0.00,,,0.00,Wunderground v.1.15,2013-04-24 04:41:00,
2013-04-24 00:45:00,73.4,67.9,29.95,ESE,122,5.0,12.0,83,0.00,,,0.00,Wunderground v.1.15,2013-04-24 04:45:00,
2013-04-24 00:46:00,73.4,67.9,29.95,South,185,11.0,12.0,83,0.00,,,0.00,Wunderground v.1.15,2013-04-24 04:46:00,
2013-04-24 00:50:00,73.4,67.9,29.94,South,191,6.0,10.0,83,0.00,,,0.00,Wunderground v.1.15,2013-04-24 04:50:00,
2013-04-24 00:51:00,73.4,67.9,29.94,SSE,158,14.0,14.0,83,0.00,,,0.00,Wunderground v.1.15,2013-04-24 04:51:00,
2013-04-24 00:56:00,73.2,67.7,29.94,South,190,9.0,14.0,83,0.00,,,0.00,Wunderground v.1.15,2013-04-24 04:56:00,
2013-04-24 00:57:00,73.2,67.7,29.94,SSW,192,11.0,14.0,83,0.00,,,0.00,Wunderground v.1.15,2013-04-24 04:57:00,
2013-04-24 00:58:00,73.2,67.7,29.94,SSW,207,7.0,14.0,83,0.00,,,0.00,Wunderground v.1.15,2013-04-24 04:58:00,
2013-04-24 00:59:00,73.3,67.8,29.94,SSE,166,13.0,14.0,83,0.00,,,0.00,Wunderground v.1.15,2013-04-24 04:59:00,
2013-04-24 01:03:00,73.3,67.8,29.94,SSW,196,2.0,9.0,83,0.00,,,0.00,Wunderground v.1.15,2013-04-24 05:03:00,
2013-04-24 01:04:00,73.2,67.7,29.94,SSE,154,10.0,10.0,83,0.00,,,0.00,Wunderground v.1.15,2013-04-24 05:04:00,
2013-04-24 01:06:00,73.2,67.7,29.94,South,172,13.0,13.0,83,0.00,,,0.00,Wunderground v.1.15,2013-04-24 05:06:00,
2013-04-24 01:08:00,73.2,67.7,29.94,SSW,197,2.0,13.0,83,0.00,,,0.00,Wunderground v.1.15,2013-04-24 05:08:00,
2013-04-24 01:10:00,73.2,67.7,29.94,SSE,166,7.0,7.0,83,0.00,,,0.00,Wunderground v.1.15,2013-04-24 05:10:00,
2013-04-24 01:12:00,73.1,67.6,29.93,SSE,156,0.0,7.0,83,0.00,,,0.00,Wunderground v.1.15,2013-04-24 05:12:00,
2013-04-24 01:13:00,73.1,67.6,29.93,SSW,196,2.0,7.0,83,0.00,,,0.00,Wunderground v.1.15,2013-04-24 05:13:00,
2013-04-24 01:14:00,73.1,67.6,29.93,South,177,10.0,10.0,83,0.00,,,0.00,Wunderground v.1.15,2013-04-24 05:14:00,
2013-04-24 01:18:00,73.1,67.6,29.93,SW,229,6.0,10.0,83,0.00,,,0.00,Wunderground v.1.15,2013-04-24 05:18:00,
2013-04-24 01:20:00,73.0,67.5,29.93,SSW,192,10.0,10.0,83,0.00,,,0.00,Wunderground v.1.15,2013-04-24 05:20:00,
2013-04-24 01:24:00,73.0,67.9,29.93,South,191,6.0,11.0,84,0.00,,,0.00,Wunderground v.1.15,2013-04-24 05:24:00,
2013-04-24 01:25:00,73.1,68.0,29.93,South,169,8.0,11.0,84,0.00,,,0.00,Wunderground v.1.15,2013-04-24 05:25:00,
2013-04-24 01:26:00,73.1,68.0,29.93,SSE,156,11.0,11.0,84,0.00,,,0.00,Wunderground v.1.15,2013-04-24 05:26:00,
2013-04-24 01:27:00,73.1,68.0,29.93,South,190,7.0,11.0,84,0.00,,,0.00,Wunderground v.1.15,2013-04-24 05:27:00,
2013-04-24 01:29:00,73.0,67.5,29.93,SSE,163,18.0,18.0,83,0.00,,,0.00,Wunderground v.1.15,2013-04-24 05:29:00,
2013-04-24 01:30:00,73.0,67.5,29.93,South,190,13.0,13.0,83,0.00,,,0.00,Wunderground v.1.15,2013-04-24 05:30:00,
2013-04-24 01:31:00,73.1,67.6,29.93,South,186,9.0,13.0,83,0.00,,,0.00,Wunderground v.1.15,2013-04-24 05:31:00,
2013-04-24 01:35:00,73.1,67.6,29.93,SSW,200,10.0,13.0,83,0.00,,,0.00,Wunderground v.1.15,2013-04-24 05:35:00,
2013-04-24 01:37:00,73.1,67.6,29.93,SSW,197,6.0,13.0,83,0.00,,,0.00,Wunderground v.1.15,2013-04-24 05:37:00,
2013-04-24 01:38:00,73.1,67.6,29.93,SSW,202,13.0,13.0,83,0.00,,,0.00,Wunderground v.1.15,2013-04-24 05:38:00,
2013-04-24 01:41:00,73.2,68.1,29.93,South,178,9.0,12.0,84,0.00,,,0.00,Wunderground v.1.15,2013-04-24 05:41:00,
2013-04-24 01:42:00,73.2,68.1,29.93,South,169,8.0,12.0,84,0.00,,,0.00,Wunderground v.1.15,2013-04-24 05:42:00,
2013-04-24 01:43:00,73.2,68.1,29.93,SSW,208,14.0,14.0,84,0.00,,,0.00,Wunderground v.1.15,2013-04-24 05:43:00,
2013-04-24 01:44:00,73.2,67.7,29.93,SSE,163,11.0,14.0,83,0.00,,,0.00,Wunderground v.1.15,2013-04-24 05:44:00,
2013-04-24 01:45:00,73.2,67.7,29.93,South,181,10.0,14.0,83,0.00,,,0.00,Wunderground v.1.15,2013-04-24 05:45:00,
2013-04-24 01:49:00,73.1,67.6,29.93,SW,223,7.0,14.0,83,0.00,,,0.00,Wunderground v.1.15,2013-04-24 05:49:00,
2013-04-24 01:51:00,73.1,67.6,29.93,South,188,9.0,12.0,83,0.00,,,0.00,Wunderground v.1.15,2013-04-24 05:51:00,
2013-04-24 01:52:00,73.1,67.6,29.93,South,179,11.0,12.0,83,0.00,,,0.00,Wunderground v.1.15,2013-04-24 05:52:00,
2013-04-24 01:55:00,73.2,67.7,29.93,SSE,163,10.0,12.0,83,0.00,,,0.00,Wunderground v.1.15,2013-04-24 05:55:00,
2013-04-24 01:56:00,73.2,67.7,29.93,SW,227,7.0,12.0,83,0.00,,,0.00,Wunderground v.1.15,2013-04-24 05:56:00,
2013-04-24 02:00:00,73.1,67.3,29.93,SE,146,10.0,10.0,82,0.00,,,0.00,Wunderground v.1.15,2013-04-24 06:00:00,
2013-04-24 02:01:00,73.1,67.6,29.93,SSE,161,9.0,10.0,83,0.00,,,0.00,Wunderground v.1.15,2013-04-24 06:01:00,
2013-04-24 02:05:00,73.2,67.7,29.93,South,180,2.0,20.0,83,0.00,,,0.00,Wunderground v.1.15,2013-04-24 06:05:00,
2013-04-24 02:06:00,73.1,67.6,29.92,SW,230,10.0,20.0,83,0.00,,,0.00,Wunderground v.1.15,2013-04-24 06:06:00,
2013-04-24 02:07:00,73.1,67.6,29.92,South,175,11.0,20.0,83,0.00,,,0.00,Wunderground v.1.15,2013-04-24 06:07:00,
2013-04-24 02:10:00,73.1,67.3,29.93,SSE,161,16.0,16.0,82,0.00,,,0.00,Wunderground v.1.15,2013-04-24 06:10:00,
2013-04-24 02:11:00,73.1,67.3,29.92,SSE,165,11.0,16.0,82,0.00,,,0.00,Wunderground v.1.15,2013-04-24 06:11:00,
2013-04-24 02:12:00,73.1,67.3,29.92,SSE,157,8.0,22.0,82,0.00,,,0.00,Wunderground v.1.15,2013-04-24 06:12:00,
2013-04-24 02:16:00,73.1,67.3,29.93,SE,133,11.0,22.0,82,0.00,,,0.00,Wunderground v.1.15,2013-04-24 06:16:00,
2013-04-24 02:17:00,73.1,67.3,29.93,SSE,148,12.0,22.0,82,0.00,,,0.00,Wunderground v.1.15,2013-04-24 06:17:00,
2013-04-24 02:21:00,73.1,67.3,29.92,SSW,200,5.0,18.0,82,0.00,,,0.00,Wunderground v.1.15,2013-04-24 06:21:00,
2013-04-24 02:22:00,73.2,67.4,29.92,South,169,12.0,18.0,82,0.00,,,0.00,Wunderground v.1.15,2013-04-24 06:22:00,
2013-04-24 02:26:00,73.2,67.7,29.92,South,169,10.0,18.0,83,0.00,,,0.00,Wunderground v.1.15,2013-04-24 06:26:00,
2013-04-24 02:27:00,73.2,67.7,29.92,SSE,165,8.0,20.0,83,0.00,,,0.00,Wunderground v.1.15,2013-04-24 06:27:00,
2013-04-24 02:31:00,73.2,67.7,29.92,South,172,5.0,18.0,83,0.00,,,0.00,Wunderground v.1.15,2013-04-24 06:31:00,
2013-04-24 02:32:00,73.2,67.7,29.92,South,182,4.0,18.0,83,0.00,,,0.00,Wunderground v.1.15,2013-04-24 06:32:00,
2013-04-24 02:36:00,73.2,67.7,29.92,South,179,7.0,18.0,83,0.00,,,0.00,Wunderground v.1.15,2013-04-24 06:36:00,
2013-04-24 02:37:00,73.2,67.7,29.92,SSW,200,14.0,18.0,83,0.00,,,0.00,Wunderground v.1.15,2013-04-24 06:37:00,
2013-04-24 02:38:00,73.2,67.7,29.92,SSE,163,16.0,18.0,83,0.00,,,0.00,Wunderground v.1.15,2013-04-24 06:38:00,
2013-04-24 02:41:00,73.1,67.6,29.92,SSW,200,11.0,15.0,83,0.00,,,0.00,Wunderground v.1.15,2013-04-24 06:41:00,
2013-04-24 02:42:00,73.1,67.3,29.92,South,189,12.0,15.0,82,0.00,,,0.00,Wunderground v.1.15,2013-04-24 06:42:00,
2013-04-24 02:43:00,73.1,67.3,29.92,South,172,13.0,15.0,82,0.00,,,0.00,Wunderground v.1.15,2013-04-24 06:43:00,
2013-04-24 02:46:00,73.2,67.4,29.91,SSE,167,8.0,15.0,82,0.00,,,0.00,Wunderground v.1.15,2013-04-24 06:46:00,
2013-04-24 02:47:00,73.2,67.4,29.91,South,178,4.0,15.0,82,0.00,,,0.00,Wunderground v.1.15,2013-04-24 06:47:00,
2013-04-24 02:48:00,73.2,67.4,29.91,SSE,159,14.0,18.0,82,0.00,,,0.00,Wunderground v.1.15,2013-04-24 06:48:00,
2013-04-24 02:51:00,73.1,67.3,29.91,SSW,204,10.0,17.0,82,0.00,,,0.00,Wunderground v.1.15,2013-04-24 06:51:00,
2013-04-24 02:52:00,73.1,67.3,29.91,SSW,201,5.0,17.0,82,0.00,,,0.00,Wunderground v.1.15,2013-04-24 06:52:00,
2013-04-24 02:53:00,73.1,67.3,29.91,SSE,164,8.0,17.0,82,0.00,,,0.00,Wunderground v.1.15,2013-04-24 06:53:00,
2013-04-24 02:54:00,73.1,67.3,29.91,SW,218,6.0,17.0,82,0.00,,,0.00,Wunderground v.1.15,2013-04-24 06:54:00,
2013-04-24 02:56:00,73.1,67.3,29.91,SSE,168,8.0,17.0,82,0.00,,,0.00,Wunderground v.1.15,2013-04-24 06:56:00,
2013-04-24 02:57:00,73.0,67.2,29.91,South,184,11.0,17.0,82,0.00,,,0.00,Wunderground v.1.15,2013-04-24 06:57:00,
2013-04-24 02:58:00,73.0,67.2,29.91,South,179,14.0,20.0,82,0.00,,,0.00,Wunderground v.1.15,2013-04-24 06:58:00,
2013-04-24 02:59:00,73.0,67.2,29.91,SSE,163,12.0,20.0,82,0.00,,,0.00,Wunderground v.1.15,2013-04-24 06:59:00,
2013-04-24 03:02:00,73.1,67.3,29.91,SSE,154,9.0,17.0,82,0.00,,,0.00,Wunderground v.1.15,2013-04-24 07:02:00,
2013-04-24 03:03:00,73.1,67.3,29.91,SSE,147,17.0,17.0,82,0.00,,,0.00,Wunderground v.1.15,2013-04-24 07:03:00,
2013-04-24 03:04:00,73.1,67.3,29.91,South,177,8.0,17.0,82,0.00,,,0.00,Wunderground v.1.15,2013-04-24 07:04:00,
2013-04-24 03:07:00,73.2,67.7,29.91,SSE,149,10.0,17.0,83,0.00,,,0.00,Wunderground v.1.15,2013-04-24 07:07:00,
2013-04-24 03:08:00,73.2,67.7,29.91,SSE,155,7.0,17.0,83,0.00,,,0.00,Wunderground v.1.15,2013-04-24 07:08:00,
2013-04-24 03:09:00,73.2,67.7,29.91,SSE,150,2.0,17.0,83,0.00,,,0.00,Wunderground v.1.15,2013-04-24 07:09:00,
2013-04-24 03:10:00,73.2,67.7,29.91,SSW,196,7.0,11.0,83,0.00,,,0.00,Wunderground v.1.15,2013-04-24 07:10:00,
2013-04-24 03:12:00,73.1,67.6,29.91,SSW,211,10.0,11.0,83,0.00,,,0.00,Wunderground v.1.15,2013-04-24 07:12:00,
2013-04-24 03:13:00,73.1,67.6,29.91,SSE,151,11.0,13.0,83,0.00,,,0.00,Wunderground v.1.15,2013-04-24 07:13:00,
2013-04-24 03:14:00,73.1,67.6,29.91,SW,222,7.0,13.0,83,0.00,,,0.00,Wunderground v.1.15,2013-04-24 07:14:00,
2013-04-24 03:15:00,73.1,67.6,29.91,SSW,204,11.0,14.0,83,0.00,,,0.00,Wunderground v.1.15,2013-04-24 07:15:00,
2013-04-24 03:17:00,73.1,67.6,29.91,SW,219,8.0,20.0,83,0.00,,,0.00,Wunderground v.1.15,2013-04-24 07:17:00,
2013-04-24 03:18:00,73.1,67.6,29.91,South,186,11.0,20.0,83,0.00,,,0.00,Wunderground v.1.15,2013-04-24 07:18:00,
2013-04-24 03:19:00,73.0,67.5,29.91,SE,136,8.0,20.0,83,0.00,,,0.00,Wunderground v.1.15,2013-04-24 07:19:00,
2013-04-24 03:20:00,73.0,67.5,29.91,SSE,162,10.0,12.0,83,0.00,,,0.00,Wunderground v.1.15,2013-04-24 07:20:00,
2013-04-24 03:22:00,73.1,67.6,29.91,South,175,16.0,16.0,83,0.00,,,0.00,Wunderground v.1.15,2013-04-24 07:22:00,
2013-04-24 03:24:00,73.1,67.6,29.91,South,174,6.0,16.0,83,0.00,,,0.00,Wunderground v.1.15,2013-04-24 07:24:00,
2013-04-24 03:25:00,73.1,67.6,29.91,SSW,201,4.0,16.0,83,0.00,,,0.00,Wunderground v.1.15,2013-04-24 07:25:00,
2013-04-24 03:27:00,73.1,68.0,29.91,SSE,163,15.0,20.0,84,0.00,,,0.00,Wunderground v.1.15,2013-04-24 07:27:00,
2013-04-24 03:29:00,73.1,68.0,29.91,South,188,12.0,20.0,84,0.00,,,0.00,Wunderground v.1.15,2013-04-24 07:29:00,
2013-04-24 03:30:00,73.1,68.0,29.91,South,170,6.0,18.0,84,0.00,,,0.00,Wunderground v.1.15,2013-04-24 07:30:00,
2013-04-24 03:33:00,73.2,68.1,29.91,South,171,10.0,18.0,84,0.00,,,0.00,Wunderground v.1.15,2013-04-24 07:33:00,
2013-04-24 03:34:00,73.2,68.1,29.91,WSW,247,8.0,18.0,84,0.00,,,0.00,Wunderground v.1.15,2013-04-24 07:34:00,
2013-04-24 03:35:00,73.2,68.1,29.91,SSE,161,14.0,18.0,84,0.00,,,0.00,Wunderground v.1.15,2013-04-24 07:35:00,
2013-04-24 03:36:00,73.2,68.1,29.91,SSE,159,13.0,18.0,84,0.00,,,0.00,Wunderground v.1.15,2013-04-24 07:36:00,
2013-04-24 03:38:00,73.2,68.4,29.91,South,169,9.0,18.0,85,0.00,,,0.00,Wunderground v.1.15,2013-04-24 07:38:00,
2013-04-24 03:39:00,73.2,68.4,29.91,SSE,156,10.0,19.0,85,0.00,,,0.00,Wunderground v.1.15,2013-04-24 07:39:00,
2013-04-24 03:40:00,73.2,68.4,29.91,SE,146,7.0,9.0,85,0.00,,,0.00,Wunderground v.1.15,2013-04-24 07:40:00,
2013-04-24 03:41:00,73.2,68.4,29.91,South,177,6.0,13.0,85,0.00,,,0.00,Wunderground v.1.15,2013-04-24 07:41:00,
2013-04-24 03:44:00,73.2,68.4,29.91,South,186,5.0,14.0,85,0.00,,,0.00,Wunderground v.1.15,2013-04-24 07:44:00,
2013-04-24 03:45:00,73.2,68.4,29.91,SSE,148,4.0,16.0,85,0.00,,,0.00,Wunderground v.1.15,2013-04-24 07:45:00,
2013-04-24 03:46:00,73.3,68.5,29.90,South,173,12.0,16.0,85,0.00,,,0.00,Wunderground v.1.15,2013-04-24 07:46:00,
2013-04-24 03:47:00,73.2,68.4,29.90,SSW,194,5.0,16.0,85,0.00,,,0.00,Wunderground v.1.15,2013-04-24 07:47:00,
2013-04-24 03:49:00,73.2,68.4,29.91,SSE,150,11.0,16.0,85,0.00,,,0.00,Wunderground v.1.15,2013-04-24 07:49:00,
2013-04-24 03:50:00,73.3,68.5,29.91,SSE,157,8.0,14.0,85,0.00,,,0.00,Wunderground v.1.15,2013-04-24 07:50:00,
2013-04-24 03:52:00,73.2,68.4,29.91,South,182,11.0,14.0,85,0.00,,,0.00,Wunderground v.1.15,2013-04-24 07:52:00,
2013-04-24 03:54:00,73.3,68.5,29.91,South,171,8.0,14.0,85,0.00,,,0.00,Wunderground v.1.15,2013-04-24 07:54:00,
2013-04-24 03:55:00,73.3,68.5,29.91,SSW,210,12.0,14.0,85,0.00,,,0.00,Wunderground v.1.15,2013-04-24 07:55:00,
2013-04-24 03:57:00,73.3,68.5,29.91,South,170,13.0,18.0,85,0.00,,,0.00,Wunderground v.1.15,2013-04-24 07:57:00,
2013-04-24 03:58:00,73.3,68.5,29.91,South,169,5.0,18.0,85,0.00,,,0.00,Wunderground v.1.15,2013-04-24 07:58:00,
2013-04-24 03:59:00,73.3,68.5,29.90,South,179,6.0,18.0,85,0.00,,,0.00,Wunderground v.1.15,2013-04-24 07:59:00,
2013-04-24 04:00:00,73.3,68.5,29.91,SW,235,0.0,10.0,85,0.00,,,0.00,Wunderground v.1.15,2013-04-24 08:00:00,
2013-04-24 04:02:00,73.3,68.5,29.91,South,173,11.0,17.0,85,0.00,,,0.00,Wunderground v.1.15,2013-04-24 08:02:00,
2013-04-24 04:03:00,73.3,68.5,29.91,SSE,161,10.0,17.0,85,0.00,,,0.00,Wunderground v.1.15,2013-04-24 08:03:00,
2013-04-24 04:04:00,73.3,68.2,29.91,SSE,155,13.0,17.0,84,0.00,,,0.00,Wunderground v.1.15,2013-04-24 08:04:00,
2013-04-24 04:05:00,73.3,68.2,29.91,SSE,150,16.0,17.0,84,0.00,,,0.00,Wunderground v.1.15,2013-04-24 08:05:00,
2013-04-24 04:06:00,73.3,68.2,29.91,South,170,8.0,17.0,84,0.00,,,0.00,Wunderground v.1.15,2013-04-24 08:06:00,
2013-04-24 04:07:00,73.3,68.2,29.91,South,176,7.0,18.0,84,0.00,,,0.00,Wunderground v.1.15,2013-04-24 08:07:00,
2013-04-24 04:09:00,73.3,68.2,29.91,SSE,161,7.0,18.0,84,0.00,,,0.00,Wunderground v.1.15,2013-04-24 08:09:00,
2013-04-24 04:10:00,73.3,68.2,29.91,ESE,116,13.0,19.0,84,0.00,,,0.00,Wunderground v.1.15,2013-04-24 08:10:00,
2013-04-24 04:11:00,73.2,68.1,29.91,SE,143,12.0,19.0,84,0.00,,,0.00,Wunderground v.1.15,2013-04-24 08:11:00,
2013-04-24 04:12:00,73.3,68.2,29.91,SSE,160,7.0,19.0,84,0.00,,,0.00,Wunderground v.1.15,2013-04-24 08:12:00,
2013-04-24 04:14:00,73.3,68.2,29.91,SE,132,4.0,19.0,84,0.00,,,0.00,Wunderground v.1.15,2013-04-24 08:14:00,
2013-04-24 04:15:00,73.3,68.2,29.91,SSE,152,5.0,19.0,84,0.00,,,0.00,Wunderground v.1.15,2013-04-24 08:15:00,
2013-04-24 04:16:00,73.2,68.1,29.91,SSE,166,15.0,19.0,84,0.00,,,0.00,Wunderground v.1.15,2013-04-24 08:16:00,
2013-04-24 04:17:00,73.2,68.1,29.91,SSE,165,9.0,19.0,84,0.00,,,0.00,Wunderground v.1.15,2013-04-24 08:17:00,
2013-04-24 04:19:00,73.2,68.1,29.91,SSE,166,8.0,19.0,84,0.00,,,0.00,Wunderground v.1.15,2013-04-24 08:19:00,
2013-04-24 04:20:00,73.1,68.0,29.91,South,178,12.0,15.0,84,0.00,,,0.00,Wunderground v.1.15,2013-04-24 08:20:00,
2013-04-24 04:21:00,73.1,68.0,29.91,SSW,192,13.0,15.0,84,0.00,,,0.00,Wunderground v.1.15,2013-04-24 08:21:00,
2013-04-24 04:22:00,73.1,68.0,29.91,SE,126,8.0,15.0,84,0.00,,,0.00,Wunderground v.1.15,2013-04-24 08:22:00,
2013-04-24 04:25:00,73.1,68.0,29.91,SE,140,10.0,15.0,84,0.00,,,0.00,Wunderground v.1.15,2013-04-24 08:25:00,
2013-04-24 04:27:00,73.1,67.6,29.91,SSW,199,12.0,17.0,83,0.00,,,0.00,Wunderground v.1.15,2013-04-24 08:27:00,
2013-04-24 04:28:00,73.1,67.6,29.90,SSE,162,8.0,17.0,83,0.00,,,0.00,Wunderground v.1.15,2013-04-24 08:28:00,
2013-04-24 04:30:00,73.1,67.6,29.91,South,175,10.0,12.0,83,0.00,,,0.00,Wunderground v.1.15,2013-04-24 08:30:00,
2013-04-24 04:32:00,73.1,67.6,29.91,South,173,15.0,19.0,83,0.00,,,0.00,Wunderground v.1.15,2013-04-24 08:32:00,
2013-04-24 04:33:00,73.1,67.6,29.91,South,179,13.0,19.0,83,0.00,,,0.00,Wunderground v.1.15,2013-04-24 08:33:00,
2013-04-24 04:35:00,73.1,67.6,29.91,SSW,206,8.0,19.0,83,0.00,,,0.00,Wunderground v.1.15,2013-04-24 08:35:00,
2013-04-24 04:37:00,73.1,67.6,29.90,SSW,209,8.0,21.0,83,0.00,,,0.00,Wunderground v.1.15,2013-04-24 08:37:00,
2013-04-24 04:38:00,73.1,67.6,29.90,South,169,12.0,21.0,83,0.00,,,0.00,Wunderground v.1.15,2013-04-24 08:38:00,
2013-04-24 04:39:00,73.1,67.6,29.91,SSE,155,14.0,21.0,83,0.00,,,0.00,Wunderground v.1.15,2013-04-24 08:39:00,
2013-04-24 04:40:00,73.1,67.6,29.91,South,189,17.0,17.0,83,0.00,,,0.00,Wunderground v.1.15,2013-04-24 08:40:00,
2013-04-24 04:41:00,73.2,67.7,29.91,South,174,6.0,17.0,83,0.00,,,0.00,Wunderground v.1.15,2013-04-24 08:41:00,
2013-04-24 04:42:00,73.1,67.6,29.91,South,182,11.0,17.0,83,0.00,,,0.00,Wunderground v.1.15,2013-04-24 08:42:00,
2013-04-24 04:43:00,73.1,67.6,29.91,SSE,161,18.0,18.0,83,0.00,,,0.00,Wunderground v.1.15,2013-04-24 08:43:00,
2013-04-24 04:44:00,73.1,67.6,29.91,SSW,200,14.0,18.0,83,0.00,,,0.00,Wunderground v.1.15,2013-04-24 08:44:00,
2013-04-24 04:45:00,73.1,67.6,29.91,SSE,164,13.0,20.0,83,0.00,,,0.00,Wunderground v.1.15,2013-04-24 08:45:00,
2013-04-24 04:46:00,73.1,67.6,29.91,South,175,13.0,22.0,83,0.00,,,0.00,Wunderground v.1.15,2013-04-24 08:46:00,
2013-04-24 04:47:00,73.2,67.7,29.91,SSE,153,10.0,22.0,83,0.00,,,0.00,Wunderground v.1.15,2013-04-24 08:47:00,
2013-04-24 04:48:00,73.1,67.6,29.91,SSE,161,13.0,22.0,83,0.00,,,0.00,Wunderground v.1.15,2013-04-24 08:48:00,
2013-04-24 04:50:00,73.2,67.7,29.91,South,185,16.0,16.0,83,0.00,,,0.00,Wunderground v.1.15,2013-04-24 08:50:00,
2013-04-24 04:51:00,73.1,67.6,29.91,SSE,165,18.0,18.0,83,0.00,,,0.00,Wunderground v.1.15,2013-04-24 08:51:00,
2013-04-24 04:52:00,73.1,67.6,29.91,South,185,6.0,18.0,83,0.00,,,0.00,Wunderground v.1.15,2013-04-24 08:52:00,
2013-04-24 04:53:00,73.1,67.6,29.91,SSW,194,3.0,18.0,83,0.00,,,0.00,Wunderground v.1.15,2013-04-24 08:53:00,
2013-04-24 04:55:00,73.1,67.6,29.91,SSE,163,18.0,18.0,83,0.00,,,0.00,Wunderground v.1.15,2013-04-24 08:55:00,
2013-04-24 04:56:00,73.1,68.0,29.92,South,182,12.0,18.0,84,0.00,,,0.00,Wunderground v.1.15,2013-04-24 08:56:00,
2013-04-24 04:58:00,73.1,68.0,29.92,South,169,8.0,24.0,84,0.00,,,0.00,Wunderground v.1.15,2013-04-24 08:58:00,
2013-04-24 04:59:00,73.1,68.0,29.92,SSE,166,9.0,24.0,84,0.00,,,0.00,Wunderground v.1.15,2013-04-24 08:59:00,
2013-04-24 05:00:00,73.1,68.0,29.92,SSW,196,6.0,10.0,84,0.00,,,0.00,Wunderground v.1.15,2013-04-24 09:00:00,
2013-04-24 05:01:00,73.1,68.0,29.92,South,184,20.0,20.0,84,0.00,,,0.00,Wunderground v.1.15,2013-04-24 09:01:00,
2013-04-24 05:02:00,73.1,68.0,29.92,South,173,10.0,20.0,84,0.00,,,0.00,Wunderground v.1.15,2013-04-24 09:02:00,
2013-04-24 05:03:00,73.1,68.0,29.92,SE,140,12.0,20.0,84,0.00,,,0.00,Wunderground v.1.15,2013-04-24 09:03:00,
2013-04-24 05:04:00,73.1,68.0,29.92,WSW,237,8.0,20.0,84,0.00,,,0.00,Wunderground v.1.15,2013-04-24 09:04:00,
2013-04-24 05:05:00,73.1,68.0,29.92,SW,229,6.0,20.0,84,0.00,,,0.00,Wunderground v.1.15,2013-04-24 09:05:00,
2013-04-24 05:06:00,73.1,68.0,29.92,SSW,195,8.0,20.0,84,0.00,,,0.00,Wunderground v.1.15,2013-04-24 09:06:00,
2013-04-24 05:07:00,73.1,68.0,29.92,SSE,165,8.0,20.0,84,0.00,,,0.00,Wunderground v.1.15,2013-04-24 09:07:00,
2013-04-24 05:09:00,73.1,68.0,29.92,SSW,205,7.0,20.0,84,0.00,,,0.00,Wunderground v.1.15,2013-04-24 09:09:00,
2013-04-24 05:10:00,73.1,68.0,29.92,SSW,207,6.0,13.0,84,0.00,,,0.00,Wunderground v.1.15,2013-04-24 09:10:00,
2013-04-24 05:12:00,73.1,68.0,29.92,SSW,211,9.0,13.0,84,0.00,,,0.00,Wunderground v.1.15,2013-04-24 09:12:00,
2013-04-24 05:13:00,73.0,67.9,29.92,SSE,150,7.0,15.0,84,0.00,,,0.00,Wunderground v.1.15,2013-04-24 09:13:00,
2013-04-24 05:14:00,73.0,67.9,29.92,SSE,157,12.0,15.0,84,0.00,,,0.00,Wunderground v.1.15,2013-04-24 09:14:00,
2013-04-24 05:15:00,73.0,67.9,29.92,South,177,11.0,17.0,84,0.00,,,0.00,Wunderground v.1.15,2013-04-24 09:15:00,
2013-04-24 05:16:00,73.0,67.9,29.92,SSE,161,12.0,17.0,84,0.00,,,0.00,Wunderground v.1.15,2013-04-24 09:16:00,
2013-04-24 05:17:00,73.1,68.0,29.92,SSE,166,9.0,17.0,84,0.00,,,0.00,Wunderground v.1.15,2013-04-24 09:17:00,
2013-04-24 05:18:00,73.0,67.5,29.92,South,176,11.0,17.0,83,0.00,,,0.00,Wunderground v.1.15,2013-04-24 09:18:00,
2013-04-24 05:20:00,73.0,67.5,29.92,South,180,9.0,18.0,83,0.00,,,0.00,Wunderground v.1.15,2013-04-24 09:20:00,
2013-04-24 05:22:00,73.0,67.5,29.92,SSE,156,10.0,18.0,83,0.00,,,0.00,Wunderground v.1.15,2013-04-24 09:22:00,
2013-04-24 05:23:00,73.1,67.6,29.92,SE,142,5.0,18.0,83,0.00,,,0.00,Wunderground v.1.15,2013-04-24 09:23:00,
2013-04-24 05:25:00,73.1,67.6,29.92,SSE,167,12.0,18.0,83,0.00,,,0.00,Wunderground v.1.15,2013-04-24 09:25:00,
2013-04-24 05:26:00,73.1,67.6,29.92,South,184,6.0,18.0,83,0.00,,,0.00,Wunderground v.1.15,2013-04-24 09:26:00,
2013-04-24 05:27:00,73.1,67.6,29.92,SSE,161,9.0,18.0,83,0.00,,,0.00,Wunderground v.1.15,2013-04-24 09:27:00,
2013-04-24 05:29:00,73.1,67.6,29.92,South,190,11.0,18.0,83,0.00,,,0.00,Wunderground v.1.15,2013-04-24 09:29:00,
2013-04-24 05:30:00,73.1,67.6,29.92,South,186,9.0,11.0,83,0.00,,,0.00,Wunderground v.1.15,2013-04-24 09:30:00,
2013-04-24 05:31:00,73.2,67.7,29.92,South,190,10.0,16.0,83,0.00,,,0.00,Wunderground v.1.15,2013-04-24 09:31:00,
2013-04-24 05:32:00,73.2,67.7,29.92,SSW,194,8.0,16.0,83,0.00,,,0.00,Wunderground v.1.15,2013-04-24 09:32:00,
2013-04-24 05:33:00,73.2,67.7,29.92,South,188,15.0,16.0,83,0.00,,,0.00,Wunderground v.1.15,2013-04-24 09:33:00,
2013-04-24 05:34:00,73.2,67.7,29.92,SSW,195,10.0,16.0,83,0.00,,,0.00,Wunderground v.1.15,2013-04-24 09:34:00,
2013-04-24 05:35:00,73.2,67.7,29.92,South,179,10.0,19.0,83,0.00,,,0.00,Wunderground v.1.15,2013-04-24 09:35:00,
2013-04-24 05:37:00,73.1,67.6,29.92,SSW,194,7.0,19.0,83,0.00,,,0.00,Wunderground v.1.15,2013-04-24 09:37:00,
2013-04-24 05:38:00,73.1,67.6,29.92,South,188,5.0,19.0,83,0.00,,,0.00,Wunderground v.1.15,2013-04-24 09:38:00,
2013-04-24 05:39:00,73.1,67.6,29.92,SSE,162,9.0,19.0,83,0.00,,,0.00,Wunderground v.1.15,2013-04-24 09:39:00,
2013-04-24 05:40:00,73.2,68.1,29.92,SSE,152,7.0,19.0,84,0.00,,,0.00,Wunderground v.1.15,2013-04-24 09:40:00,
2013-04-24 05:43:00,73.2,68.1,29.93,SSE,164,10.0,19.0,84,0.00,,,0.00,Wunderground v.1.15,2013-04-24 09:43:00,
2013-04-24 05:45:00,73.2,68.1,29.92,SSE,159,15.0,19.0,84,0.00,,,0.00,Wunderground v.1.15,2013-04-24 09:45:00,
2013-04-24 05:46:00,73.3,68.2,29.93,South,175,11.0,19.0,84,0.00,,,0.00,Wunderground v.1.15,2013-04-24 09:46:00,
2013-04-24 05:48:00,73.3,68.2,29.93,SE,135,14.0,19.0,84,0.00,,,0.00,Wunderground v.1.15,2013-04-24 09:48:00,
2013-04-24 05:49:00,73.2,68.1,29.93,South,184,9.0,19.0,84,0.00,,,0.00,Wunderground v.1.15,2013-04-24 09:49:00,
2013-04-24 05:50:00,73.2,68.1,29.93,SSE,161,9.0,12.0,84,0.00,,,0.00,Wunderground v.1.15,2013-04-24 09:50:00,
2013-04-24 05:51:00,73.2,68.1,29.93,SSW,202,10.0,15.0,84,0.00,,,0.00,Wunderground v.1.15,2013-04-24 09:51:00,
2013-04-24 05:53:00,73.3,68.2,29.93,ESE,105,5.0,17.0,84,0.00,,,0.00,Wunderground v.1.15,2013-04-24 09:53:00,
2013-04-24 05:54:00,73.3,68.2,29.93,SSE,153,15.0,17.0,84,0.00,,,0.00,Wunderground v.1.15,2013-04-24 09:54:00,
2013-04-24 05:55:00,73.3,68.2,29.93,SE,124,12.0,17.0,84,0.00,,,0.00,Wunderground v.1.15,2013-04-24 09:55:00,
2013-04-24 05:57:00,73.3,68.2,29.93,SE,135,19.0,19.0,84,0.00,,,0.00,Wunderground v.1.15,2013-04-24 09:57:00,
2013-04-24 05:58:00,73.3,68.2,29.93,SSE,153,12.0,20.0,84,0.00,,,0.00,Wunderground v.1.15,2013-04-24 09:58:00,
2013-04-24 05:59:00,73.3,68.2,29.93,SSW,194,14.0,20.0,84,0.00,,,0.00,Wunderground v.1.15,2013-04-24 09:59:00,
2013-04-24 06:00:00,73.3,68.2,29.93,SE,134,8.0,14.0,84,0.00,,,0.00,Wunderground v.1.15,2013-04-24 10:00:00,
2013-04-24 06:01:00,73.3,68.2,29.93,South,177,8.0,17.0,84,0.00,,,0.00,Wunderground v.1.15,2013-04-24 10:01:00,
2013-04-24 06:02:00,73.3,68.2,29.93,SSE,150,6.0,17.0,84,0.00,,,0.00,Wunderground v.1.15,2013-04-24 10:02:00,
2013-04-24 06:04:00,73.4,68.3,29.93,SSE,154,10.0,18.0,84,0.00,,,0.00,Wunderground v.1.15,2013-04-24 10:04:00,
2013-04-24 06:05:00,73.4,68.3,29.93,SE,142,13.0,18.0,84,0.00,,,0.00,Wunderground v.1.15,2013-04-24 10:05:00,
2013-04-24 06:06:00,73.4,68.3,29.93,SSE,154,19.0,19.0,84,0.00,,,0.00,Wunderground v.1.15,2013-04-24 10:06:00,
2013-04-24 06:07:00,73.4,68.3,29.93,SSE,158,13.0,19.0,84,0.00,,,0.00,Wunderground v.1.15,2013-04-24 10:07:00,
2013-04-24 06:09:00,73.4,68.3,29.93,South,177,9.0,19.0,84,0.00,,,0.00,Wunderground v.1.15,2013-04-24 10:09:00,
2013-04-24 06:10:00,73.4,68.3,29.93,SSE,159,9.0,11.0,84,0.00,,,0.00,Wunderground v.1.15,2013-04-24 10:10:00,
2013-04-24 06:11:00,73.4,68.3,29.93,South,180,7.0,16.0,84,0.00,,,0.00,Wunderground v.1.15,2013-04-24 10:11:00,
2013-04-24 06:12:00,73.4,68.3,29.93,South,178,9.0,16.0,84,0.00,,,0.00,Wunderground v.1.15,2013-04-24 10:12:00,
2013-04-24 06:14:00,73.4,68.3,29.93,SSE,153,17.0,18.0,84,0.00,,,0.00,Wunderground v.1.15,2013-04-24 10:14:00,
2013-04-24 06:15:00,73.4,68.3,29.93,ESE,108,8.0,18.0,84,0.00,,,0.00,Wunderground v.1.15,2013-04-24 10:15:00,
2013-04-24 06:16:00,73.3,68.2,29.93,SW,219,8.0,18.0,84,0.00,,,0.00,Wunderground v.1.15,2013-04-24 10:16:00,
2013-04-24 06:18:00,73.4,68.3,29.93,ESE,121,9.0,20.0,84,0.00,,,0.00,Wunderground v.1.15,2013-04-24 10:18:00,
2013-04-24 06:19:00,73.4,68.6,29.93,South,189,5.0,20.0,85,0.00,,,0.00,Wunderground v.1.15,2013-04-24 10:19:00,
2013-04-24 06:20:00,73.4,68.6,29.94,SSE,164,16.0,16.0,85,0.00,,,0.00,Wunderground v.1.15,2013-04-24 10:20:00,
2013-04-24 06:21:00,73.4,68.6,29.93,SSE,155,4.0,18.0,85,0.00,,,0.00,Wunderground v.1.15,2013-04-24 10:21:00,
2013-04-24 06:24:00,73.4,68.6,29.94,SE,134,4.0,18.0,85,0.00,,,0.00,Wunderground v.1.15,2013-04-24 10:24:00,
2013-04-24 06:25:00,73.4,68.6,29.94,SSE,160,9.0,18.0,85,0.00,,,0.00,Wunderground v.1.15,2013-04-24 10:25:00,
2013-04-24 06:26:00,73.4,68.6,29.94,SSW,204,12.0,18.0,85,0.00,,,0.00,Wunderground v.1.15,2013-04-24 10:26:00,
2013-04-24 06:27:00,73.4,68.6,29.94,South,169,9.0,18.0,85,0.00,,,0.00,Wunderground v.1.15,2013-04-24 10:27:00,
2013-04-24 06:29:00,73.4,68.6,29.94,SE,142,20.0,21.0,85,0.00,,,0.00,Wunderground v.1.15,2013-04-24 10:29:00,
2013-04-24 06:30:00,73.4,68.6,29.94,SE,130,4.0,9.0,85,0.00,,,0.00,Wunderground v.1.15,2013-04-24 10:30:00,
2013-04-24 06:31:00,73.4,68.6,29.94,ESE,111,13.0,18.0,85,0.00,,,0.00,Wunderground v.1.15,2013-04-24 10:31:00,
2013-04-24 06:32:00,73.4,68.6,29.94,SSE,167,15.0,18.0,85,0.00,,,0.00,Wunderground v.1.15,2013-04-24 10:32:00,
2013-04-24 06:35:00,73.4,68.6,29.94,SSE,161,12.0,18.0,85,0.00,,,0.00,Wunderground v.1.15,2013-04-24 10:35:00,
2013-04-24 06:36:00,73.5,68.7,29.94,SSE,159,13.0,22.0,85,0.00,,,0.00,Wunderground v.1.15,2013-04-24 10:36:00,
2013-04-24 06:37:00,73.5,68.7,29.94,South,170,14.0,22.0,85,0.00,,,0.00,Wunderground v.1.15,2013-04-24 10:37:00,
2013-04-24 06:40:00,73.5,68.7,29.94,SSE,167,10.0,11.0,85,0.00,,,0.00,Wunderground v.1.15,2013-04-24 10:40:00,
2013-04-24 06:42:00,73.6,68.8,29.94,SSE,153,12.0,14.0,85,0.00,,,0.00,Wunderground v.1.15,2013-04-24 10:42:00,
2013-04-24 06:45:00,73.5,68.4,29.94,SSE,155,11.0,17.0,84,0.00,,,0.00,Wunderground v.1.15,2013-04-24 10:45:00,
2013-04-24 06:46:00,73.5,68.4,29.94,SSW,205,10.0,17.0,84,0.00,,,0.00,Wunderground v.1.15,2013-04-24 10:46:00,
2013-04-24 06:47:00,73.5,68.4,29.94,SE,134,9.0,17.0,84,0.00,,,0.00,Wunderground v.1.15,2013-04-24 10:47:00,
2013-04-24 06:50:00,73.5,68.4,29.94,ESE,122,7.0,10.0,84,0.00,,,0.00,Wunderground v.1.15,2013-04-24 10:50:00,
2013-04-24 06:51:00,73.5,68.4,29.94,SSE,166,12.0,15.0,84,0.00,,,0.00,Wunderground v.1.15,2013-04-24 10:51:00,
2013-04-24 06:52:00,73.5,68.4,29.94,SSE,165,11.0,17.0,84,0.00,,,0.00,Wunderground v.1.15,2013-04-24 10:52:00,
2013-04-24 06:53:00,73.6,68.5,29.94,SSE,158,7.0,19.0,84,0.00,,,0.00,Wunderground v.1.15,2013-04-24 10:53:00,
2013-04-24 06:56:00,73.6,68.5,29.94,SE,141,9.0,19.0,84,0.00,,,0.00,Wunderground v.1.15,2013-04-24 10:56:00,
2013-04-24 06:57:00,73.6,68.5,29.94,SSE,155,6.0,19.0,84,0.00,,,0.00,Wunderground v.1.15,2013-04-24 10:57:00,
2013-04-24 06:58:00,73.6,68.5,29.94,ENE,72,6.0,19.0,84,0.00,,,0.00,Wunderground v.1.15,2013-04-24 10:58:00,
2013-04-24 06:59:00,73.7,68.6,29.94,East,85,6.0,19.0,84,0.00,,,0.00,Wunderground v.1.15,2013-04-24 10:59:00,
2013-04-24 07:01:00,73.7,68.6,29.95,ESE,113,12.0,16.0,84,0.00,,,0.00,Wunderground v.1.15,2013-04-24 11:01:00,
2013-04-24 07:03:00,73.8,68.7,29.95,ESE,111,6.0,16.0,84,0.00,,,0.00,Wunderground v.1.15,2013-04-24 11:03:00,
2013-04-24 07:04:00,73.8,68.7,29.95,SSE,157,9.0,16.0,84,0.00,,,0.00,Wunderground v.1.15,2013-04-24 11:04:00,
2013-04-24 07:06:00,73.9,68.8,29.95,SE,142,12.0,16.0,84,0.00,,,0.00,Wunderground v.1.15,2013-04-24 11:06:00,
2013-04-24 07:08:00,73.8,68.7,29.95,SE,132,8.0,16.0,84,0.00,,,0.00,Wunderground v.1.15,2013-04-24 11:08:00,
2013-04-24 07:09:00,73.8,68.7,29.95,SE,136,12.0,16.0,84,0.00,,,0.00,Wunderground v.1.15,2013-04-24 11:09:00,
2013-04-24 07:11:00,73.8,68.7,29.95,SSE,155,11.0,12.0,84,0.00,,,0.00,Wunderground v.1.15,2013-04-24 11:11:00,
2013-04-24 07:12:00,73.8,68.7,29.95,SSE,157,7.0,12.0,84,0.00,,,0.00,Wunderground v.1.15,2013-04-24 11:12:00,
2013-04-24 07:14:00,73.8,68.7,29.95,SSE,160,2.0,12.0,84,0.00,,,0.00,Wunderground v.1.15,2013-04-24 11:14:00,
2013-04-24 07:17:00,73.8,68.7,29.95,WSW,239,9.0,12.0,84,0.00,,,0.00,Wunderground v.1.15,2013-04-24 11:17:00,
2013-04-24 07:19:00,73.8,68.7,29.95,ESE,114,0.0,12.0,84,0.00,,,0.00,Wunderground v.1.15,2013-04-24 11:19:00,
2013-04-24 07:22:00,73.8,68.7,29.95,SSE,148,11.0,14.0,84,0.00,,,0.00,Wunderground v.1.15,2013-04-24 11:22:00,
2013-04-24 07:24:00,73.8,68.7,29.95,SE,145,5.0,14.0,84,0.00,,,0.00,Wunderground v.1.15,2013-04-24 11:24:00,
2013-04-24 07:25:00,73.8,68.7,29.95,SSW,200,2.0,14.0,84,0.00,,,0.00,Wunderground v.1.15,2013-04-24 11:25:00,
2013-04-24 07:27:00,73.8,68.7,29.96,South,184,5.0,14.0,84,0.00,,,0.00,Wunderground v.1.15,2013-04-24 11:27:00,
2013-04-24 07:28:00,73.9,68.8,29.96,South,184,4.0,14.0,84,0.00,,,0.00,Wunderground v.1.15,2013-04-24 11:28:00,
2013-04-24 07:29:00,73.9,68.8,29.96,ESE,112,8.0,15.0,84,0.00,,,0.00,Wunderground v.1.15,2013-04-24 11:29:00,
2013-04-24 07:30:00,73.9,68.8,29.96,SE,135,2.0,8.0,84,0.00,,,0.00,Wunderground v.1.15,2013-04-24 11:30:00,
2013-04-24 07:32:00,74.0,68.9,29.96,ENE,71,4.0,10.0,84,0.00,,,0.00,Wunderground v.1.15,2013-04-24 11:32:00,
2013-04-24 07:33:00,74.0,68.9,29.96,ESE,110,4.0,12.0,84,0.00,,,0.00,Wunderground v.1.15,2013-04-24 11:33:00,
2013-04-24 07:34:00,74.0,68.9,29.97,ESE,104,11.0,19.0,84,0.00,,,0.00,Wunderground v.1.15,2013-04-24 11:34:00,
2013-04-24 07:35:00,74.0,68.5,29.96,East,96,9.0,19.0,83,0.00,,,0.00,Wunderground v.1.15,2013-04-24 11:35:00,
2013-04-24 07:37:00,74.1,68.6,29.96,ESE,104,12.0,19.0,83,0.00,,,0.00,Wunderground v.1.15,2013-04-24 11:37:00,
2013-04-24 07:39:00,74.1,68.6,29.96,ESE,120,8.0,19.0,83,0.00,,,0.00,Wunderground v.1.15,2013-04-24 11:39:00,
2013-04-24 07:40:00,74.1,68.6,29.96,SSE,167,2.0,7.0,83,0.00,,,0.00,Wunderground v.1.15,2013-04-24 11:40:00,
2013-04-24 07:43:00,74.2,68.7,29.96,SSE,153,6.0,15.0,83,0.00,,,0.00,Wunderground v.1.15,2013-04-24 11:43:00,
2013-04-24 07:44:00,74.2,68.7,29.96,SSE,156,4.0,15.0,83,0.00,,,0.00,Wunderground v.1.15,2013-04-24 11:44:00,
2013-04-24 07:45:00,74.2,68.7,29.96,ENE,57,4.0,15.0,83,0.00,,,0.00,Wunderground v.1.15,2013-04-24 11:45:00,
2013-04-24 07:48:00,74.3,68.8,29.96,ESE,102,9.0,15.0,83,0.00,,,0.00,Wunderground v.1.15,2013-04-24 11:48:00,
2013-04-24 07:49:00,74.3,68.8,29.97,ENE,64,5.0,15.0,83,0.00,,,0.00,Wunderground v.1.15,2013-04-24 11:49:00,
2013-04-24 07:50:00,74.3,68.8,29.97,ENE,61,3.0,7.0,83,0.00,,,0.00,Wunderground v.1.15,2013-04-24 11:50:00,
2013-04-24 07:53:00,74.3,68.4,29.96,WSW,246,6.0,18.0,82,0.00,,,0.00,Wunderground v.1.15,2013-04-24 11:53:00,
2013-04-24 07:54:00,74.3,68.8,29.96,SSW,193,6.0,18.0,83,0.00,,,0.00,Wunderground v.1.15,2013-04-24 11:54:00,
2013-04-24 07:55:00,74.3,68.8,29.96,South,188,7.0,18.0,83,0.00,,,0.00,Wunderground v.1.15,2013-04-24 11:55:00,
2013-04-24 07:57:00,74.3,68.8,29.96,East,101,4.0,18.0,83,0.00,,,0.00,Wunderground v.1.15,2013-04-24 11:57:00,
2013-04-24 07:58:00,74.4,68.5,29.97,South,185,6.0,18.0,82,0.00,,,0.00,Wunderground v.1.15,2013-04-24 11:58:00,
2013-04-24 08:00:00,74.4,68.5,29.96,SSW,202,3.0,8.0,82,0.00,,,0.00,Wunderground v.1.15,2013-04-24 12:00:00,
2013-04-24 08:02:00,74.4,68.5,29.96,SSW,198,6.0,16.0,82,0.00,,,0.00,Wunderground v.1.15,2013-04-24 12:02:00,
2013-04-24 08:03:00,74.4,68.5,29.96,East,86,13.0,16.0,82,0.00,,,0.00,Wunderground v.1.15,2013-04-24 12:03:00,
2013-04-24 08:05:00,74.5,68.6,29.97,SE,138,9.0,16.0,82,0.00,,,0.00,Wunderground v.1.15,2013-04-24 12:05:00,
2013-04-24 08:06:00,74.6,68.7,29.97,East,94,11.0,16.0,82,0.00,,,0.00,Wunderground v.1.15,2013-04-24 12:06:00,
2013-04-24 08:07:00,74.6,68.7,29.96,SSE,165,11.0,16.0,82,0.00,,,0.00,Wunderground v.1.15,2013-04-24 12:07:00,
2013-04-24 08:09:00,74.7,68.8,29.97,ENE,68,10.0,16.0,82,0.00,,,0.00,Wunderground v.1.15,2013-04-24 12:09:00,
2013-04-24 08:10:00,74.7,68.8,29.97,East,91,9.0,11.0,82,0.00,,,0.00,Wunderground v.1.15,2013-04-24 12:10:00,
2013-04-24 08:11:00,74.7,68.8,29.97,ENE,68,8.0,11.0,82,0.00,,,0.00,Wunderground v.1.15,2013-04-24 12:11:00,
2013-04-24 08:12:00,74.7,68.8,29.97,SSE,160,10.0,15.0,82,0.00,,,0.00,Wunderground v.1.15,2013-04-24 12:12:00,
2013-04-24 08:14:00,74.7,68.8,29.97,South,178,0.0,15.0,82,0.00,,,0.00,Wunderground v.1.15,2013-04-24 12:14:00,
2013-04-24 08:16:00,74.8,68.9,29.97,SW,223,3.0,15.0,82,0.00,,,0.00,Wunderground v.1.15,2013-04-24 12:16:00,
2013-04-24 08:17:00,74.8,68.9,29.97,West,267,4.0,15.0,82,0.00,,,0.00,Wunderground v.1.15,2013-04-24 12:17:00,
2013-04-24 08:20:00,74.8,68.9,29.97,ESE,117,8.0,13.0,82,0.00,,,0.00,Wunderground v.1.15,2013-04-24 12:20:00,
2013-04-24 08:21:00,74.8,68.9,29.97,East,84,7.0,14.0,82,0.00,,,0.00,Wunderground v.1.15,2013-04-24 12:21:00,
2013-04-24 08:23:00,74.8,68.9,29.97,East,98,6.0,14.0,82,0.00,,,0.00,Wunderground v.1.15,2013-04-24 12:23:00,
2013-04-24 08:25:00,74.9,68.7,29.97,East,89,6.0,14.0,81,0.00,,,0.00,Wunderground v.1.15,2013-04-24 12:25:00,
2013-04-24 08:26:00,74.9,69.0,29.97,SE,142,14.0,14.0,82,0.00,,,0.00,Wunderground v.1.15,2013-04-24 12:26:00,
2013-04-24 08:27:00,74.9,69.0,29.97,SSE,165,10.0,14.0,82,0.00,,,0.00,Wunderground v.1.15,2013-04-24 12:27:00,
2013-04-24 08:28:00,74.9,69.0,29.97,SSE,162,9.0,16.0,82,0.00,,,0.00,Wunderground v.1.15,2013-04-24 12:28:00,
2013-04-24 08:30:00,75.0,69.1,29.97,SE,136,7.0,10.0,82,0.00,,,0.00,Wunderground v.1.15,2013-04-24 12:30:00,
2013-04-24 08:31:00,75.1,68.9,29.97,SE,141,4.0,10.0,81,0.00,,,0.00,Wunderground v.1.15,2013-04-24 12:31:00,
2013-04-24 08:32:00,75.1,68.9,29.97,ESE,113,11.0,11.0,81,0.00,,,0.00,Wunderground v.1.15,2013-04-24 12:32:00,
2013-04-24 08:33:00,75.0,68.8,29.97,SE,130,6.0,14.0,81,0.00,,,0.00,Wunderground v.1.15,2013-04-24 12:33:00,
2013-04-24 08:36:00,75.1,68.9,29.97,SE,145,6.0,14.0,81,0.00,,,0.00,Wunderground v.1.15,2013-04-24 12:36:00,
2013-04-24 08:37:00,75.1,68.9,29.97,East,97,11.0,19.0,81,0.00,,,0.00,Wunderground v.1.15,2013-04-24 12:37:00,
2013-04-24 08:38:00,75.1,68.9,29.97,South,185,4.0,19.0,81,0.00,,,0.00,Wunderground v.1.15,2013-04-24 12:38:00,
2013-04-24 08:41:00,75.1,68.9,29.97,East,99,2.0,8.0,81,0.00,,,0.00,Wunderground v.1.15,2013-04-24 12:41:00,
2013-04-24 08:42:00,75.2,69.0,29.97,East,100,4.0,8.0,81,0.00,,,0.00,Wunderground v.1.15,2013-04-24 12:42:00,
2013-04-24 08:43:00,75.3,69.1,29.97,SSW,200,4.0,16.0,81,0.00,,,0.00,Wunderground v.1.15,2013-04-24 12:43:00,
2013-04-24 08:46:00,75.6,69.0,29.97,East,91,15.0,16.0,80,0.00,,,0.00,Wunderground v.1.15,2013-04-24 12:46:00,
2013-04-24 08:47:00,75.6,69.0,29.97,SSW,194,4.0,16.0,80,0.00,,,0.00,Wunderground v.1.15,2013-04-24 12:47:00,
2013-04-24 08:48:00,75.7,68.7,29.97,ENE,76,8.0,16.0,79,0.00,,,0.00,Wunderground v.1.15,2013-04-24 12:48:00,
2013-04-24 08:49:00,75.7,68.7,29.97,WSW,239,2.0,16.0,79,0.00,,,0.00,Wunderground v.1.15,2013-04-24 12:49:00,
2013-04-24 08:51:00,75.8,68.8,29.97,SSE,147,4.0,14.0,79,0.00,,,0.00,Wunderground v.1.15,2013-04-24 12:51:00,
2013-04-24 08:52:00,75.9,68.5,29.97,WSW,238,12.0,14.0,78,0.00,,,0.00,Wunderground v.1.15,2013-04-24 12:52:00,
2013-04-24 08:53:00,76.0,69.0,29.97,East,91,5.0,15.0,79,0.00,,,0.00,Wunderground v.1.15,2013-04-24 12:53:00,
2013-04-24 08:55:00,76.1,68.7,29.96,SSE,165,7.0,19.0,78,0.00,,,0.00,Wunderground v.1.15,2013-04-24 12:55:00,
2013-04-24 08:56:00,76.1,68.7,29.97,ENE,74,6.0,19.0,78,0.00,,,0.00,Wunderground v.1.15,2013-04-24 12:56:00,
2013-04-24 08:57:00,76.1,69.1,29.97,ESE,115,6.0,19.0,79,0.00,,,0.00,Wunderground v.1.15,2013-04-24 12:57:00,
2013-04-24 08:58:00,76.2,69.2,29.97,ESE,115,4.0,19.0,79,0.00,,,0.00,Wunderground v.1.15,2013-04-24 12:58:00,
2013-04-24 09:01:00,76.3,68.9,29.97,SE,128,2.0,7.0,78,0.00,,,0.00,Wunderground v.1.15,2013-04-24 13:01:00,
2013-04-24 09:02:00,76.3,68.9,29.97,NE,34,10.0,15.0,78,0.00,,,0.00,Wunderground v.1.15,2013-04-24 13:02:00,
2013-04-24 09:03:00,76.3,68.9,29.97,SE,129,7.0,15.0,78,0.00,,,0.00,Wunderground v.1.15,2013-04-24 13:03:00,
2013-04-24 09:07:00,76.4,69.0,29.97,SSW,207,6.0,19.0,78,0.00,,,0.00,Wunderground v.1.15,2013-04-24 13:07:00,
2013-04-24 09:08:00,76.5,69.1,29.97,SSW,200,4.0,19.0,78,0.00,,,0.00,Wunderground v.1.15,2013-04-24 13:08:00,
2013-04-24 09:09:00,76.5,68.7,29.97,South,180,5.0,19.0,77,0.00,,,0.00,Wunderground v.1.15,2013-04-24 13:09:00,
2013-04-24 09:12:00,76.5,68.7,29.98,ESE,105,7.0,13.0,77,0.00,,,0.00,Wunderground v.1.15,2013-04-24 13:12:00,
2013-04-24 09:13:00,76.4,68.7,29.97,SW,225,7.0,18.0,77,0.00,,,0.00,Wunderground v.1.15,2013-04-24 13:13:00,
2013-04-24 09:14:00,76.4,68.7,29.97,ESE,121,9.0,18.0,77,0.00,,,0.00,Wunderground v.1.15,2013-04-24 13:14:00,
2013-04-24 09:17:00,76.3,68.9,29.97,East,91,6.0,18.0,78,0.00,,,0.00,Wunderground v.1.15,2013-04-24 13:17:00,
2013-04-24 09:18:00,76.4,69.0,29.97,ESE,113,6.0,18.0,78,0.00,,,0.00,Wunderground v.1.15,2013-04-24 13:18:00,
2013-04-24 09:20:00,76.6,69.2,29.98,WSW,240,3.0,7.0,78,0.00,,,0.00,Wunderground v.1.15,2013-04-24 13:20:00,
2013-04-24 09:22:00,76.9,69.1,29.98,SSW,207,3.0,13.0,77,0.00,,,0.00,Wunderground v.1.15,2013-04-24 13:22:00,
2013-04-24 09:23:00,77.0,68.9,29.98,ESE,107,9.0,13.0,76,0.00,,,0.00,Wunderground v.1.15,2013-04-24 13:23:00,
2013-04-24 09:24:00,77.0,68.9,29.98,ESE,107,7.0,13.0,76,0.00,,,0.00,Wunderground v.1.15,2013-04-24 13:24:00,
2013-04-24 09:26:00,77.1,68.6,29.97,ESE,107,21.0,21.0,75,0.00,,,0.00,Wunderground v.1.15,2013-04-24 13:26:00,
2013-04-24 09:27:00,77.1,68.6,29.98,ENE,74,10.0,21.0,75,0.00,,,0.00,Wunderground v.1.15,2013-04-24 13:27:00,
2013-04-24 09:28:00,77.0,68.5,29.98,East,80,10.0,21.0,75,0.00,,,0.00,Wunderground v.1.15,2013-04-24 13:28:00,
2013-04-24 09:29:00,77.1,68.6,29.97,South,169,2.0,21.0,75,0.00,,,0.00,Wunderground v.1.15,2013-04-24 13:29:00,
2013-04-24 09:31:00,77.4,68.9,29.98,ESE,109,8.0,11.0,75,0.00,,,0.00,Wunderground v.1.15,2013-04-24 13:31:00,
2013-04-24 09:33:00,77.6,68.7,29.97,ESE,104,9.0,14.0,74,0.00,,,0.00,Wunderground v.1.15,2013-04-24 13:33:00,
2013-04-24 09:34:00,77.7,68.7,29.97,East,81,4.0,14.0,74,0.00,,,0.00,Wunderground v.1.15,2013-04-24 13:34:00,
2013-04-24 09:36:00,77.9,68.9,29.98,SSW,202,9.0,14.0,74,0.00,,,0.00,Wunderground v.1.15,2013-04-24 13:36:00,
2013-04-24 09:38:00,78.3,69.3,29.98,SSE,165,5.0,14.0,74,0.00,,,0.00,Wunderground v.1.15,2013-04-24 13:38:00,
2013-04-24 09:39:00,78.5,69.5,29.98,East,88,7.0,14.0,74,0.00,,,0.00,Wunderground v.1.15,2013-04-24 13:39:00,
2013-04-24 09:41:00,78.7,69.3,29.98,ESE,109,14.0,19.0,73,0.00,,,0.00,Wunderground v.1.15,2013-04-24 13:41:00,
2013-04-24 09:43:00,78.9,69.5,29.97,SW,214,8.0,19.0,73,0.00,,,0.00,Wunderground v.1.15,2013-04-24 13:43:00,
2013-04-24 09:44:00,79.0,69.6,29.97,SSW,201,4.0,20.0,73,0.00,,,0.00,Wunderground v.1.15,2013-04-24 13:44:00,
2013-04-24 09:45:00,79.1,69.7,29.97,ESE,121,1.0,20.0,73,0.00,,,0.00,Wunderground v.1.15,2013-04-24 13:45:00,
2013-04-24 09:46:00,79.2,69.8,29.98,East,88,2.0,20.0,73,0.00,,,0.00,Wunderground v.1.15,2013-04-24 13:46:00,
2013-04-24 09:47:00,79.3,69.5,29.98,SE,128,8.0,20.0,72,0.00,,,0.00,Wunderground v.1.15,2013-04-24 13:47:00,
2013-04-24 09:49:00,79.5,69.7,29.98,ESE,107,0.0,20.0,72,0.00,,,0.00,Wunderground v.1.15,2013-04-24 13:49:00,
2013-04-24 09:50:00,79.5,69.3,29.98,ESE,107,5.0,6.0,71,0.00,,,0.00,Wunderground v.1.15,2013-04-24 13:50:00,
2013-04-24 09:52:00,79.5,69.3,29.98,East,81,8.0,12.0,71,0.00,,,0.00,Wunderground v.1.15,2013-04-24 13:52:00,
2013-04-24 09:53:00,79.4,69.6,29.98,SSW,194,2.0,12.0,72,0.00,,,0.00,Wunderground v.1.15,2013-04-24 13:53:00,
2013-04-24 09:54:00,79.4,69.6,29.98,East,93,8.0,12.0,72,0.00,,,0.00,Wunderground v.1.15,2013-04-24 13:54:00,
2013-04-24 09:55:00,79.3,69.1,29.98,ESE,112,8.0,21.0,71,0.00,,,0.00,Wunderground v.1.15,2013-04-24 13:55:00,
2013-04-24 09:57:00,79.3,69.5,29.98,South,172,2.0,21.0,72,0.00,,,0.00,Wunderground v.1.15,2013-04-24 13:57:00,
2013-04-24 09:58:00,79.3,69.1,29.98,SSW,194,2.0,21.0,71,0.00,,,0.00,Wunderground v.1.15,2013-04-24 13:58:00,
2013-04-24 09:59:00,79.3,69.1,29.98,East,97,15.0,21.0,71,0.00,,,0.00,Wunderground v.1.15,2013-04-24 13:59:00,
2013-04-24 10:00:00,79.3,69.1,29.98,South,171,8.0,13.0,71,0.00,,,0.00,Wunderground v.1.15,2013-04-24 14:00:00,
2013-04-24 10:01:00,79.4,69.2,29.98,South,190,4.0,13.0,71,0.00,,,0.00,Wunderground v.1.15,2013-04-24 14:01:00,
2013-04-24 10:02:00,79.4,69.2,29.98,ESE,105,11.0,13.0,71,0.00,,,0.00,Wunderground v.1.15,2013-04-24 14:02:00,
2013-04-24 10:03:00,79.3,69.1,29.98,East,98,2.0,13.0,71,0.00,,,0.00,Wunderground v.1.15,2013-04-24 14:03:00,
2013-04-24 10:04:00,79.2,69.4,29.98,ESE,111,6.0,13.0,72,0.00,,,0.00,Wunderground v.1.15,2013-04-24 14:04:00,
2013-04-24 10:06:00,79.1,68.9,29.98,NE,46,5.0,13.0,71,0.00,,,0.00,Wunderground v.1.15,2013-04-24 14:06:00,
2013-04-24 10:07:00,79.1,69.3,29.98,East,94,2.0,13.0,72,0.00,,,0.00,Wunderground v.1.15,2013-04-24 14:07:00,
2013-04-24 10:08:00,79.2,69.4,29.98,East,94,18.0,18.0,72,0.00,,,0.00,Wunderground v.1.15,2013-04-24 14:08:00,
2013-04-24 10:10:00,79.1,69.3,29.98,East,97,9.0,9.0,72,0.00,,,0.00,Wunderground v.1.15,2013-04-24 14:10:00,
2013-04-24 10:11:00,78.9,69.5,29.98,SW,227,2.0,12.0,73,0.00,,,0.00,Wunderground v.1.15,2013-04-24 14:11:00,
2013-04-24 10:12:00,78.8,69.4,29.98,ESE,108,11.0,12.0,73,0.00,,,0.00,Wunderground v.1.15,2013-04-24 14:12:00,
2013-04-24 10:13:00,78.8,69.4,29.98,ENE,57,6.0,13.0,73,0.00,,,0.00,Wunderground v.1.15,2013-04-24 14:13:00,
2013-04-24 10:15:00,78.7,69.3,29.98,East,90,11.0,16.0,73,0.00,,,0.00,Wunderground v.1.15,2013-04-24 14:15:00,
2013-04-24 10:16:00,78.5,69.1,29.98,East,89,2.0,16.0,73,0.00,,,0.00,Wunderground v.1.15,2013-04-24 14:16:00,
2013-04-24 10:18:00,78.6,70.0,29.98,West,264,11.0,16.0,75,0.00,,,0.00,Wunderground v.1.15,2013-04-24 14:18:00,
2013-04-24 10:19:00,78.7,69.7,29.98,East,94,14.0,16.0,74,0.00,,,0.00,Wunderground v.1.15,2013-04-24 14:19:00,
2013-04-24 10:20:00,78.8,69.8,29.98,SSE,155,6.0,15.0,74,0.00,,,0.00,Wunderground v.1.15,2013-04-24 14:20:00,
2013-04-24 10:21:00,78.8,69.8,29.98,South,175,4.0,15.0,74,0.00,,,0.00,Wunderground v.1.15,2013-04-24 14:21:00,
2013-04-24 10:22:00,78.8,69.8,29.98,SW,219,8.0,15.0,74,0.00,,,0.00,Wunderground v.1.15,2013-04-24 14:22:00,
2013-04-24 10:24:00,79.0,70.0,29.97,SSW,192,10.0,15.0,74,0.00,,,0.00,Wunderground v.1.15,2013-04-24 14:24:00,
2013-04-24 10:25:00,79.0,69.6,29.98,East,96,14.0,15.0,73,0.00,,,0.00,Wunderground v.1.15,2013-04-24 14:25:00,
2013-04-24 10:26:00,78.9,69.5,29.97,ESE,117,5.0,15.0,73,0.00,,,0.00,Wunderground v.1.15,2013-04-24 14:26:00,
2013-04-24 10:27:00,78.9,69.5,29.97,SSE,168,9.0,15.0,73,0.00,,,0.00,Wunderground v.1.15,2013-04-24 14:27:00,
2013-04-24 10:29:00,78.9,69.9,29.97,SE,146,6.0,15.0,74,0.00,,,0.00,Wunderground v.1.15,2013-04-24 14:29:00,
2013-04-24 10:30:00,79.0,70.0,29.97,ESE,109,2.0,7.0,74,0.00,,,0.00,Wunderground v.1.15,2013-04-24 14:30:00,
2013-04-24 10:31:00,79.1,70.1,29.98,ESE,113,7.0,14.0,74,0.00,,,0.00,Wunderground v.1.15,2013-04-24 14:31:00,
2013-04-24 10:32:00,79.0,70.0,29.97,ESE,113,7.0,14.0,74,0.00,,,0.00,Wunderground v.1.15,2013-04-24 14:32:00,
2013-04-24 10:34:00,78.8,69.8,29.97,NE,38,5.0,15.0,74,0.00,,,0.00,Wunderground v.1.15,2013-04-24 14:34:00,
2013-04-24 10:36:00,78.8,69.8,29.97,East,88,5.0,15.0,74,0.00,,,0.00,Wunderground v.1.15,2013-04-24 14:36:00,
2013-04-24 10:37:00,78.7,69.7,29.97,SE,124,5.0,15.0,74,0.00,,,0.00,Wunderground v.1.15,2013-04-24 14:37:00,
2013-04-24 10:40:00,78.9,69.9,29.97,East,79,6.0,7.0,74,0.00,,,0.00,Wunderground v.1.15,2013-04-24 14:40:00,
2013-04-24 10:41:00,79.1,70.1,29.97,East,84,7.0,14.0,74,0.00,,,0.00,Wunderground v.1.15,2013-04-24 14:41:00,
2013-04-24 10:42:00,79.2,69.4,29.97,East,88,3.0,17.0,72,0.00,,,0.00,Wunderground v.1.15,2013-04-24 14:42:00,
2013-04-24 10:43:00,79.2,69.8,29.97,ENE,77,8.0,17.0,73,0.00,,,0.00,Wunderground v.1.15,2013-04-24 14:43:00,
2013-04-24 10:45:00,79.4,70.4,29.97,WSW,239,2.0,17.0,74,0.00,,,0.00,Wunderground v.1.15,2013-04-24 14:45:00,
2013-04-24 10:46:00,79.5,70.1,29.97,ESE,107,6.0,18.0,73,0.00,,,0.00,Wunderground v.1.15,2013-04-24 14:46:00,
2013-04-24 10:47:00,79.6,70.2,29.97,NE,34,6.0,18.0,73,0.00,,,0.00,Wunderground v.1.15,2013-04-24 14:47:00,
2013-04-24 10:48:00,79.6,69.8,29.97,ENE,63,7.0,23.0,72,0.00,,,0.00,Wunderground v.1.15,2013-04-24 14:48:00,
2013-04-24 10:50:00,79.5,69.7,29.97,East,99,11.0,18.0,72,0.00,,,0.00,Wunderground v.1.15,2013-04-24 14:50:00,
2013-04-24 10:51:00,79.4,69.6,29.97,SSE,153,9.0,18.0,72,0.00,,,0.00,Wunderground v.1.15,2013-04-24 14:51:00,
2013-04-24 10:52:00,79.4,69.6,29.97,ESE,108,7.0,18.0,72,0.00,,,0.00,Wunderground v.1.15,2013-04-24 14:52:00,
2013-04-24 10:53:00,79.3,69.5,29.97,East,93,7.0,18.0,72,0.00,,,0.00,Wunderground v.1.15,2013-04-24 14:53:00,
2013-04-24 10:54:00,79.3,69.5,29.97,SE,139,2.0,18.0,72,0.00,,,0.00,Wunderground v.1.15,2013-04-24 14:54:00,
2013-04-24 10:56:00,79.4,70.0,29.97,SE,129,0.0,18.0,73,0.00,,,0.00,Wunderground v.1.15,2013-04-24 14:56:00,
2013-04-24 10:57:00,79.4,70.4,29.97,SE,138,0.0,18.0,74,0.00,,,0.00,Wunderground v.1.15,2013-04-24 14:57:00,
2013-04-24 10:58:00,79.5,70.5,29.97,East,95,14.0,18.0,74,0.00,,,0.00,Wunderground v.1.15,2013-04-24 14:58:00,
2013-04-24 10:59:00,79.5,69.7,29.97,East,80,7.0,18.0,72,0.00,,,0.00,Wunderground v.1.15,2013-04-24 14:59:00,
2013-04-24 11:01:00,79.4,70.0,29.97,East,89,14.0,16.0,73,0.00,,,0.00,Wunderground v.1.15,2013-04-24 15:01:00,
2013-04-24 11:02:00,79.5,70.1,29.97,ENE,68,0.0,16.0,73,0.00,,,0.00,Wunderground v.1.15,2013-04-24 15:02:00,
2013-04-24 11:03:00,79.6,70.2,29.97,ESE,105,7.0,19.0,73,0.00,,,0.00,Wunderground v.1.15,2013-04-24 15:03:00,
2013-04-24 11:04:00,79.7,69.9,29.97,East,100,20.0,20.0,72,0.00,,,0.00,Wunderground v.1.15,2013-04-24 15:04:00,
2013-04-24 11:09:00,80.0,70.2,29.97,ESE,109,5.0,20.0,72,0.00,,,0.00,Wunderground v.1.15,2013-04-24 15:09:00,
2013-04-24 11:10:00,80.1,70.7,29.97,SE,135,4.0,7.0,73,0.00,,,0.00,Wunderground v.1.15,2013-04-24 15:10:00,
2013-04-24 11:11:00,80.1,70.3,29.97,ENE,75,7.0,15.0,72,0.00,,,0.00,Wunderground v.1.15,2013-04-24 15:11:00,
2013-04-24 11:14:00,80.0,70.2,29.97,East,83,2.0,15.0,72,0.00,,,0.00,Wunderground v.1.15,2013-04-24 15:14:00,
2013-04-24 11:15:00,80.0,70.2,29.97,East,84,2.0,15.0,72,0.00,,,0.00,Wunderground v.1.15,2013-04-24 15:15:00,
2013-04-24 11:16:00,80.2,70.4,29.97,East,89,13.0,15.0,72,0.00,,,0.00,Wunderground v.1.15,2013-04-24 15:16:00,
2013-04-24 11:20:00,80.5,70.2,29.97,East,100,8.0,9.0,71,0.00,,,0.00,Wunderground v.1.15,2013-04-24 15:20:00,
2013-04-24 11:21:00,80.6,70.3,29.97,ESE,117,7.0,13.0,71,0.00,,,0.00,Wunderground v.1.15,2013-04-24 15:21:00,
2013-04-24 11:25:00,80.5,69.8,29.97,North,360,1.0,13.0,70,0.00,,,0.00,Wunderground v.1.15,2013-04-24 15:25:00,
2013-04-24 11:26:00,80.5,69.8,29.97,South,180,13.0,13.0,70,0.00,,,0.00,Wunderground v.1.15,2013-04-24 15:26:00,
2013-04-24 11:27:00,80.4,69.7,29.97,WSW,244,2.0,13.0,70,0.00,,,0.00,Wunderground v.1.15,2013-04-24 15:27:00,
2013-04-24 11:30:00,80.3,70.0,29.97,East,99,5.0,7.0,71,0.00,,,0.00,Wunderground v.1.15,2013-04-24 15:30:00,
2013-04-24 11:31:00,80.3,70.0,29.97,East,98,4.0,7.0,71,0.00,,,0.00,Wunderground v.1.15,2013-04-24 15:31:00,
2013-04-24 11:32:00,80.6,71.5,29.97,SSW,202,5.0,9.0,74,0.00,,,0.00,Wunderground v.1.15,2013-04-24 15:32:00,
2013-04-24 11:35:00,81.1,70.8,29.97,East,90,1.0,11.0,71,0.00,,,0.00,Wunderground v.1.15,2013-04-24 15:35:00,
2013-04-24 11:36:00,81.1,70.0,29.97,ENE,70,5.0,11.0,69,0.00,,,0.00,Wunderground v.1.15,2013-04-24 15:36:00,
2013-04-24 11:37:00,81.0,70.3,29.97,SSE,151,10.0,17.0,70,0.00,,,0.00,Wunderground v.1.15,2013-04-24 15:37:00,
2013-04-24 11:41:00,80.9,69.8,29.97,NNE,33,4.0,6.0,69,0.00,,,0.00,Wunderground v.1.15,2013-04-24 15:41:00,
2013-04-24 11:43:00,81.0,69.9,29.96,SSE,168,4.0,10.0,69,0.00,,,0.00,Wunderground v.1.15,2013-04-24 15:43:00,
2013-04-24 11:44:00,81.2,70.9,29.97,SSW,202,2.0,10.0,71,0.00,,,0.00,Wunderground v.1.15,2013-04-24 15:44:00,
2013-04-24 11:46:00,81.5,70.3,29.97,SSE,160,5.0,16.0,69,0.00,,,0.00,Wunderground v.1.15,2013-04-24 15:46:00,
2013-04-24 11:48:00,81.2,69.2,29.97,South,178,16.0,21.0,67,0.00,,,0.00,Wunderground v.1.15,2013-04-24 15:48:00,
2013-04-24 11:49:00,81.2,69.2,29.97,South,180,6.0,21.0,67,0.00,,,0.00,Wunderground v.1.15,2013-04-24 15:49:00,
2013-04-24 11:51:00,80.5,69.4,29.96,East,92,2.0,13.0,69,0.00,,,0.00,Wunderground v.1.15,2013-04-24 15:51:00,
2013-04-24 11:54:00,80.5,69.4,29.96,SE,144,8.0,13.0,69,0.00,,,0.00,Wunderground v.1.15,2013-04-24 15:54:00,
2013-04-24 11:56:00,80.6,69.9,29.96,ESE,115,4.0,13.0,70,0.00,,,0.00,Wunderground v.1.15,2013-04-24 15:56:00,
2013-04-24 11:59:00,80.7,69.6,29.96,WSW,240,0.0,13.0,69,0.00,,,0.00,Wunderground v.1.15,2013-04-24 15:59:00,
2013-04-24 12:01:00,81.2,70.5,29.96,WSW,257,3.0,7.0,70,0.00,,,0.00,Wunderground v.1.15,2013-04-24 16:01:00,
2013-04-24 12:02:00,81.2,70.5,29.96,WSW,257,3.0,7.0,70,0.00,,,0.00,Wunderground v.1.15,2013-04-24 16:02:00,
2013-04-24 12:04:00,81.6,70.4,29.97,ESE,105,15.0,19.0,69,0.00,,,0.00,Wunderground v.1.15,2013-04-24 16:04:00,
2013-04-24 12:05:00,81.7,70.1,29.97,SSE,149,10.0,19.0,68,0.00,,,0.00,Wunderground v.1.15,2013-04-24 16:05:00,
2013-04-24 12:07:00,81.6,70.0,29.96,East,89,8.0,27.0,68,0.00,,,0.00,Wunderground v.1.15,2013-04-24 16:07:00,
2013-04-24 12:08:00,81.3,69.3,29.96,East,88,1.0,27.0,67,0.00,,,0.00,Wunderground v.1.15,2013-04-24 16:08:00,
2013-04-24 12:09:00,81.0,69.9,29.96,East,90,8.0,27.0,69,0.00,,,0.00,Wunderground v.1.15,2013-04-24 16:09:00,
2013-04-24 12:10:00,80.9,69.8,29.96,East,84,1.0,6.0,69,0.00,,,0.00,Wunderground v.1.15,2013-04-24 16:10:00,
2013-04-24 12:12:00,80.9,70.2,29.96,SSW,207,3.0,8.0,70,0.00,,,0.00,Wunderground v.1.15,2013-04-24 16:12:00,
2013-04-24 12:13:00,81.0,69.9,29.96,ESE,109,9.0,9.0,69,0.00,,,0.00,Wunderground v.1.15,2013-04-24 16:13:00,
2013-04-24 12:14:00,81.0,69.9,29.95,SSE,150,8.0,9.0,69,0.00,,,0.00,Wunderground v.1.15,2013-04-24 16:14:00,
2013-04-24 12:15:00,81.0,69.9,29.96,East,95,8.0,9.0,69,0.00,,,0.00,Wunderground v.1.15,2013-04-24 16:15:00,
2013-04-24 12:17:00,80.9,69.8,29.96,SE,145,5.0,12.0,69,0.00,,,0.00,Wunderground v.1.15,2013-04-24 16:17:00,
2013-04-24 12:18:00,80.8,69.7,29.96,SE,136,5.0,12.0,69,0.00,,,0.00,Wunderground v.1.15,2013-04-24 16:18:00,
2013-04-24 12:19:00,80.8,70.1,29.96,East,101,5.0,12.0,70,0.00,,,0.00,Wunderground v.1.15,2013-04-24 16:19:00,
2013-04-24 12:20:00,80.9,70.2,29.96,East,83,10.0,13.0,70,0.00,,,0.00,Wunderground v.1.15,2013-04-24 16:20:00,
2013-04-24 12:23:00,80.8,69.7,29.95,ENE,78,7.0,16.0,69,0.00,,,0.00,Wunderground v.1.15,2013-04-24 16:23:00,
2013-04-24 12:24:00,80.9,70.2,29.95,ENE,69,6.0,16.0,70,0.00,,,0.00,Wunderground v.1.15,2013-04-24 16:24:00,
2013-04-24 12:25:00,80.9,69.8,29.95,ENE,77,4.0,22.0,69,0.00,,,0.00,Wunderground v.1.15,2013-04-24 16:25:00,
2013-04-24 12:28:00,80.7,69.6,29.95,East,94,11.0,22.0,69,0.00,,,0.00,Wunderground v.1.15,2013-04-24 16:28:00,
2013-04-24 12:29:00,80.6,69.5,29.95,SE,128,6.0,22.0,69,0.00,,,0.00,Wunderground v.1.15,2013-04-24 16:29:00,
2013-04-24 12:30:00,80.5,69.4,29.95,East,95,8.0,8.0,69,0.00,,,0.00,Wunderground v.1.15,2013-04-24 16:30:00,
2013-04-24 12:33:00,80.5,69.8,29.95,East,94,2.0,16.0,70,0.00,,,0.00,Wunderground v.1.15,2013-04-24 16:33:00,
2013-04-24 12:34:00,80.6,69.5,29.95,SSE,165,4.0,16.0,69,0.00,,,0.00,Wunderground v.1.15,2013-04-24 16:34:00,
2013-04-24 12:35:00,80.7,69.6,29.95,ESE,113,8.0,16.0,69,0.00,,,0.00,Wunderground v.1.15,2013-04-24 16:35:00,
2013-04-24 12:36:00,80.7,69.2,29.95,SSW,210,2.0,16.0,68,0.00,,,0.00,Wunderground v.1.15,2013-04-24 16:36:00,
2013-04-24 12:38:00,80.8,69.7,29.96,SE,146,15.0,18.0,69,0.00,,,0.00,Wunderground v.1.15,2013-04-24 16:38:00,
2013-04-24 12:39:00,80.8,69.7,29.95,East,86,13.0,18.0,69,0.00,,,0.00,Wunderground v.1.15,2013-04-24 16:39:00,
2013-04-24 12:40:00,80.9,69.8,29.95,East,97,7.0,7.0,69,0.00,,,0.00,Wunderground v.1.15,2013-04-24 16:40:00,
2013-04-24 12:41:00,80.8,69.7,29.95,ESE,106,5.0,14.0,69,0.00,,,0.00,Wunderground v.1.15,2013-04-24 16:41:00,
2013-04-24 12:43:00,80.7,69.6,29.95,NE,52,3.0,20.0,69,0.00,,,0.00,Wunderground v.1.15,2013-04-24 16:43:00,
2013-04-24 12:45:00,80.4,69.7,29.95,East,87,10.0,20.0,70,0.00,,,0.00,Wunderground v.1.15,2013-04-24 16:45:00,
2013-04-24 12:46:00,80.5,69.8,29.95,ENE,69,12.0,20.0,70,0.00,,,0.00,Wunderground v.1.15,2013-04-24 16:46:00,
2013-04-24 12:48:00,80.5,70.2,29.95,SW,217,8.0,20.0,71,0.00,,,0.00,Wunderground v.1.15,2013-04-24 16:48:00,
2013-04-24 12:50:00,80.6,69.5,29.95,SE,134,4.0,18.0,69,0.00,,,0.00,Wunderground v.1.15,2013-04-24 16:50:00,
2013-04-24 12:52:00,80.4,69.7,29.95,SSE,157,5.0,18.0,70,0.00,,,0.00,Wunderground v.1.15,2013-04-24 16:52:00,
2013-04-24 12:53:00,80.4,69.7,29.94,SE,125,9.0,18.0,70,0.00,,,0.00,Wunderground v.1.15,2013-04-24 16:53:00,
2013-04-24 12:54:00,80.5,69.8,29.94,ESE,105,7.0,18.0,70,0.00,,,0.00,Wunderground v.1.15,2013-04-24 16:54:00,
2013-04-24 12:55:00,80.6,69.5,29.95,East,94,11.0,18.0,69,0.00,,,0.00,Wunderground v.1.15,2013-04-24 16:55:00,
2013-04-24 12:57:00,80.6,69.9,29.95,East,84,6.0,19.0,70,0.00,,,0.00,Wunderground v.1.15,2013-04-24 16:57:00,
2013-04-24 12:58:00,80.6,69.9,29.94,East,94,14.0,19.0,70,0.00,,,0.00,Wunderground v.1.15,2013-04-24 16:58:00,
2013-04-24 12:59:00,80.5,69.8,29.95,East,92,14.0,19.0,70,0.00,,,0.00,Wunderground v.1.15,2013-04-24 16:59:00,
2013-04-24 13:00:00,80.4,69.3,29.94,ESE,105,1.0,16.0,69,0.00,,,0.00,Wunderground v.1.15,2013-04-24 17:00:00,
2013-04-24 13:02:00,80.0,69.3,29.94,WSW,243,12.0,18.0,70,0.00,,,0.00,Wunderground v.1.15,2013-04-24 17:02:00,
2013-04-24 13:03:00,80.0,69.7,29.94,ESE,103,12.0,18.0,71,0.00,,,0.00,Wunderground v.1.15,2013-04-24 17:03:00,
2013-04-24 13:04:00,80.0,69.3,29.94,ESE,106,9.0,18.0,70,0.00,,,0.00,Wunderground v.1.15,2013-04-24 17:04:00,
2013-04-24 13:05:00,80.1,69.4,29.94,ENE,74,6.0,18.0,70,0.00,,,0.00,Wunderground v.1.15,2013-04-24 17:05:00,
2013-04-24 13:06:00,80.1,69.4,29.94,East,91,11.0,18.0,70,0.00,,,0.00,Wunderground v.1.15,2013-04-24 17:06:00,
2013-04-24 13:08:00,80.1,69.4,29.94,SSE,167,6.0,18.0,70,0.00,,,0.00,Wunderground v.1.15,2013-04-24 17:08:00,
2013-04-24 13:09:00,80.2,69.5,29.94,East,98,7.0,21.0,70,0.00,,,0.00,Wunderground v.1.15,2013-04-24 17:09:00,
2013-04-24 13:10:00,80.4,69.3,29.94,SE,127,13.0,13.0,69,0.00,,,0.00,Wunderground v.1.15,2013-04-24 17:10:00,
2013-04-24 13:11:00,80.4,69.3,29.94,ESE,116,1.0,13.0,69,0.00,,,0.00,Wunderground v.1.15,2013-04-24 17:11:00,
2013-04-24 13:13:00,80.5,69.4,29.94,ESE,107,5.0,13.0,69,0.00,,,0.00,Wunderground v.1.15,2013-04-24 17:13:00,
2013-04-24 13:14:00,80.6,69.5,29.94,East,90,11.0,13.0,69,0.00,,,0.00,Wunderground v.1.15,2013-04-24 17:14:00,
2013-04-24 13:16:00,80.8,69.7,29.94,East,84,6.0,15.0,69,0.00,,,0.00,Wunderground v.1.15,2013-04-24 17:16:00,
2013-04-24 13:18:00,80.7,69.6,29.94,SE,124,7.0,20.0,69,0.00,,,0.00,Wunderground v.1.15,2013-04-24 17:18:00,
2013-04-24 13:19:00,80.6,69.5,29.94,South,170,5.0,20.0,69,0.00,,,0.00,Wunderground v.1.15,2013-04-24 17:19:00,
2013-04-24 13:21:00,80.4,69.3,29.93,East,89,3.0,11.0,69,0.00,,,0.00,Wunderground v.1.15,2013-04-24 17:21:00,
2013-04-24 13:22:00,80.4,69.7,29.93,ESE,106,8.0,14.0,70,0.00,,,0.00,Wunderground v.1.15,2013-04-24 17:22:00,
2013-04-24 13:23:00,80.4,69.7,29.93,East,93,6.0,14.0,70,0.00,,,0.00,Wunderground v.1.15,2013-04-24 17:23:00,
2013-04-24 13:24:00,80.5,69.8,29.93,East,95,8.0,14.0,70,0.00,,,0.00,Wunderground v.1.15,2013-04-24 17:24:00,
2013-04-24 13:26:00,80.4,69.7,29.94,SSE,165,7.0,20.0,70,0.00,,,0.00,Wunderground v.1.15,2013-04-24 17:26:00,
2013-04-24 13:28:00,80.4,69.7,29.93,SE,124,9.0,20.0,70,0.00,,,0.00,Wunderground v.1.15,2013-04-24 17:28:00,
2013-04-24 13:29:00,80.6,69.9,29.93,East,92,1.0,20.0,70,0.00,,,0.00,Wunderground v.1.15,2013-04-24 17:29:00,
2013-04-24 13:32:00,80.7,69.6,29.93,ENE,77,4.0,9.0,69,0.00,,,0.00,Wunderground v.1.15,2013-04-24 17:32:00,
2013-04-24 13:33:00,80.9,70.6,29.93,WSW,245,3.0,9.0,71,0.00,,,0.00,Wunderground v.1.15,2013-04-24 17:33:00,
2013-04-24 13:35:00,80.9,69.8,29.93,South,182,0.0,14.0,69,0.00,,,0.00,Wunderground v.1.15,2013-04-24 17:35:00,
2013-04-24 13:37:00,81.0,69.9,29.93,East,93,1.0,18.0,69,0.00,,,0.00,Wunderground v.1.15,2013-04-24 17:37:00,
2013-04-24 13:39:00,81.0,69.4,29.92,SW,232,9.0,20.0,68,0.00,,,0.00,Wunderground v.1.15,2013-04-24 17:39:00,
2013-04-24 13:40:00,80.9,69.3,29.92,ESE,103,9.0,19.0,68,0.00,,,0.00,Wunderground v.1.15,2013-04-24 17:40:00,
2013-04-24 13:42:00,80.7,69.6,29.92,SE,126,13.0,19.0,69,0.00,,,0.00,Wunderground v.1.15,2013-04-24 17:42:00,
2013-04-24 13:44:00,80.6,69.5,29.92,SSW,192,4.0,19.0,69,0.00,,,0.00,Wunderground v.1.15,2013-04-24 17:44:00,
2013-04-24 13:45:00,80.6,69.9,29.92,SE,134,6.0,19.0,70,0.00,,,0.00,Wunderground v.1.15,2013-04-24 17:45:00,
2013-04-24 13:46:00,80.6,69.9,29.92,SSE,156,5.0,19.0,70,0.00,,,0.00,Wunderground v.1.15,2013-04-24 17:46:00,
2013-04-24 13:47:00,80.8,70.1,29.92,SSE,166,12.0,19.0,70,0.00,,,0.00,Wunderground v.1.15,2013-04-24 17:47:00,
2013-04-24 13:49:00,81.0,69.4,29.92,East,101,9.0,19.0,68,0.00,,,0.00,Wunderground v.1.15,2013-04-24 17:49:00,
2013-04-24 13:50:00,80.9,69.8,29.92,SE,126,1.0,8.0,69,0.00,,,0.00,Wunderground v.1.15,2013-04-24 17:50:00,
2013-04-24 13:51:00,81.0,69.9,29.92,ENE,76,7.0,8.0,69,0.00,,,0.00,Wunderground v.1.15,2013-04-24 17:51:00,
2013-04-24 13:52:00,81.1,70.4,29.92,ESE,111,7.0,13.0,70,0.00,,,0.00,Wunderground v.1.15,2013-04-24 17:52:00,
2013-04-24 13:54:00,81.2,70.1,29.92,SW,227,4.0,13.0,69,0.00,,,0.00,Wunderground v.1.15,2013-04-24 17:54:00,
2013-04-24 13:55:00,81.2,70.5,29.92,SSW,213,0.0,13.0,70,0.00,,,0.00,Wunderground v.1.15,2013-04-24 17:55:00,
2013-04-24 13:56:00,81.4,70.7,29.92,NE,44,16.0,16.0,70,0.00,,,0.00,Wunderground v.1.15,2013-04-24 17:56:00,
2013-04-24 13:57:00,81.5,69.9,29.92,ESE,103,8.0,21.0,68,0.00,,,0.00,Wunderground v.1.15,2013-04-24 17:57:00,
2013-04-24 14:00:00,81.5,69.9,29.92,ENE,67,10.0,15.0,68,0.00,,,0.00,Wunderground v.1.15,2013-04-24 18:00:00,
2013-04-24 14:01:00,81.5,69.5,29.92,ESE,114,12.0,20.0,67,0.00,,,0.00,Wunderground v.1.15,2013-04-24 18:01:00,
2013-04-24 14:02:00,81.3,69.7,29.92,SSE,164,6.0,20.0,68,0.00,,,0.00,Wunderground v.1.15,2013-04-24 18:02:00,
2013-04-24 14:05:00,81.2,70.1,29.91,NE,54,1.0,20.0,69,0.00,,,0.00,Wunderground v.1.15,2013-04-24 18:05:00,
2013-04-24 14:06:00,81.2,69.6,29.91,ENE,63,2.0,20.0,68,0.00,,,0.00,Wunderground v.1.15,2013-04-24 18:06:00,
2013-04-24 14:08:00,81.2,69.6,29.91,ESE,110,6.0,20.0,68,0.00,,,0.00,Wunderground v.1.15,2013-04-24 18:08:00,
2013-04-24 14:10:00,81.4,70.2,29.91,SE,138,8.0,9.0,69,0.00,,,0.00,Wunderground v.1.15,2013-04-24 18:10:00,
2013-04-24 14:11:00,81.5,70.3,29.91,ESE,123,5.0,9.0,69,0.00,,,0.00,Wunderground v.1.15,2013-04-24 18:11:00,
2013-04-24 14:13:00,81.5,69.5,29.91,NE,38,1.0,18.0,67,0.00,,,0.00,Wunderground v.1.15,2013-04-24 18:13:00,
2013-04-24 14:16:00,81.6,70.0,29.91,ESE,115,2.0,18.0,68,0.00,,,0.00,Wunderground v.1.15,2013-04-24 18:16:00,
2013-04-24 14:18:00,81.9,69.9,29.91,East,83,6.0,18.0,67,0.00,,,0.00,Wunderground v.1.15,2013-04-24 18:18:00,
2013-04-24 14:21:00,81.8,69.3,29.91,NNW,347,3.0,6.0,66,0.00,,,0.00,Wunderground v.1.15,2013-04-24 18:21:00,
2013-04-24 14:22:00,81.6,69.6,29.91,East,93,2.0,9.0,67,0.00,,,0.00,Wunderground v.1.15,2013-04-24 18:22:00,
2013-04-24 14:24:00,81.5,69.9,29.91,SE,142,1.0,9.0,68,0.00,,,0.00,Wunderground v.1.15,2013-04-24 18:24:00,
2013-04-24 14:26:00,81.6,70.4,29.91,ESE,103,8.0,9.0,69,0.00,,,0.00,Wunderground v.1.15,2013-04-24 18:26:00,
2013-04-24 14:27:00,81.7,70.1,29.90,ESE,113,0.0,12.0,68,0.00,,,0.00,Wunderground v.1.15,2013-04-24 18:27:00,
2013-04-24 14:29:00,81.6,70.0,29.91,East,90,16.0,16.0,68,0.00,,,0.00,Wunderground v.1.15,2013-04-24 18:29:00,
2013-04-24 14:31:00,81.2,69.6,29.91,East,100,5.0,14.0,68,0.00,,,0.00,Wunderground v.1.15,2013-04-24 18:31:00,
2013-04-24 14:32:00,81.1,69.5,29.91,ENE,77,6.0,14.0,68,0.00,,,0.00,Wunderground v.1.15,2013-04-24 18:32:00,
2013-04-24 14:35:00,81.0,69.4,29.90,SSW,209,7.0,20.0,68,0.00,,,0.00,Wunderground v.1.15,2013-04-24 18:35:00,
2013-04-24 14:36:00,80.8,69.2,29.90,East,90,22.0,22.0,68,0.00,,,0.00,Wunderground v.1.15,2013-04-24 18:36:00,
2013-04-24 14:37:00,80.7,69.2,29.90,SSE,153,4.0,22.0,68,0.00,,,0.00,Wunderground v.1.15,2013-04-24 18:37:00,
2013-04-24 14:40:00,80.8,69.7,29.90,SSW,196,0.0,7.0,69,0.00,,,0.00,Wunderground v.1.15,2013-04-24 18:40:00,
2013-04-24 14:41:00,80.8,69.7,29.90,ENE,61,2.0,10.0,69,0.00,,,0.00,Wunderground v.1.15,2013-04-24 18:41:00,
2013-04-24 14:42:00,80.8,69.7,29.90,WSW,240,14.0,17.0,69,0.00,,,0.00,Wunderground v.1.15,2013-04-24 18:42:00,
2013-04-24 14:43:00,80.7,69.6,29.90,SW,225,5.0,17.0,69,0.00,,,0.00,Wunderground v.1.15,2013-04-24 18:43:00,
2013-04-24 14:45:00,80.8,69.7,29.90,SE,136,2.0,17.0,69,0.00,,,0.00,Wunderground v.1.15,2013-04-24 18:45:00,
2013-04-24 14:47:00,81.0,69.9,29.90,East,90,8.0,17.0,69,0.00,,,0.00,Wunderground v.1.15,2013-04-24 18:47:00,
2013-04-24 14:48:00,81.1,69.5,29.89,SE,132,6.0,17.0,68,0.00,,,0.00,Wunderground v.1.15,2013-04-24 18:48:00,
2013-04-24 14:51:00,81.3,70.2,29.89,WSW,240,2.0,9.0,69,0.00,,,0.00,Wunderground v.1.15,2013-04-24 18:51:00,
2013-04-24 14:52:00,81.5,70.8,29.89,SSW,204,5.0,9.0,70,0.00,,,0.00,Wunderground v.1.15,2013-04-24 18:52:00,
2013-04-24 14:53:00,81.6,70.9,29.89,WSW,255,5.0,13.0,70,0.00,,,0.00,Wunderground v.1.15,2013-04-24 18:53:00,
2013-04-24 14:54:00,81.6,70.0,29.89,ESE,121,5.0,13.0,68,0.00,,,0.00,Wunderground v.1.15,2013-04-24 18:54:00,
2013-04-24 14:56:00,81.6,70.0,29.89,NNE,26,3.0,13.0,68,0.00,,,0.00,Wunderground v.1.15,2013-04-24 18:56:00,
2013-04-24 14:57:00,81.6,70.0,29.89,NE,51,3.0,13.0,68,0.00,,,0.00,Wunderground v.1.15,2013-04-24 18:57:00,
2013-04-24 14:58:00,81.6,69.6,29.89,SE,126,8.0,13.0,67,0.00,,,0.00,Wunderground v.1.15,2013-04-24 18:58:00,
2013-04-24 14:59:00,81.6,70.0,29.89,SE,126,4.0,13.0,68,0.00,,,0.00,Wunderground v.1.15,2013-04-24 18:59:00,
2013-04-24 15:01:00,81.8,70.2,29.89,SSE,155,0.0,9.0,68,0.00,,,0.00,Wunderground v.1.15,2013-04-24 19:01:00,
2013-04-24 15:02:00,81.8,69.8,29.90,SE,130,8.0,17.0,67,0.00,,,0.00,Wunderground v.1.15,2013-04-24 19:02:00,
2013-04-24 15:03:00,81.7,69.7,29.89,ESE,112,5.0,17.0,67,0.00,,,0.00,Wunderground v.1.15,2013-04-24 19:03:00,
2013-04-24 15:04:00,81.7,69.7,29.89,SE,130,9.0,20.0,67,0.00,,,0.00,Wunderground v.1.15,2013-04-24 19:04:00,
2013-04-24 15:06:00,81.5,69.5,29.89,East,97,9.0,20.0,67,0.00,,,0.00,Wunderground v.1.15,2013-04-24 19:06:00,
2013-04-24 15:07:00,81.4,69.4,29.89,ESE,105,7.0,20.0,67,0.00,,,0.00,Wunderground v.1.15,2013-04-24 19:07:00,
2013-04-24 15:08:00,81.4,69.4,29.89,SSE,153,6.0,20.0,67,0.00,,,0.00,Wunderground v.1.15,2013-04-24 19:08:00,
2013-04-24 15:09:00,81.4,69.8,29.89,ESE,122,11.0,20.0,68,0.00,,,0.00,Wunderground v.1.15,2013-04-24 19:09:00,
2013-04-24 15:11:00,81.4,70.2,29.89,SE,134,9.0,12.0,69,0.00,,,0.00,Wunderground v.1.15,2013-04-24 19:11:00,
2013-04-24 15:12:00,81.4,69.8,29.89,SSW,206,7.0,13.0,68,0.00,,,0.00,Wunderground v.1.15,2013-04-24 19:12:00,
2013-04-24 15:13:00,81.4,69.8,29.89,North,11,4.0,13.0,68,0.00,,,0.00,Wunderground v.1.15,2013-04-24 19:13:00,
2013-04-24 15:14:00,81.3,69.7,29.89,ENE,74,5.0,13.0,68,0.00,,,0.00,Wunderground v.1.15,2013-04-24 19:14:00,
2013-04-24 15:16:00,81.2,70.1,29.89,SSW,205,9.0,13.0,69,0.00,,,0.00,Wunderground v.1.15,2013-04-24 19:16:00,
2013-04-24 15:17:00,81.1,69.5,29.89,East,100,6.0,13.0,68,0.00,,,0.00,Wunderground v.1.15,2013-04-24 19:17:00,
2013-04-24 15:18:00,81.1,69.5,29.89,South,174,10.0,13.0,68,0.00,,,0.00,Wunderground v.1.15,2013-04-24 19:18:00,
2013-04-24 15:20:00,81.1,69.5,29.89,ESE,121,5.0,8.0,68,0.00,,,0.00,Wunderground v.1.15,2013-04-24 19:20:00,
2013-04-24 15:21:00,81.2,69.6,29.89,ESE,116,7.0,8.0,68,0.00,,,0.00,Wunderground v.1.15,2013-04-24 19:21:00,
2013-04-24 15:23:00,81.3,70.2,29.89,SSE,158,16.0,19.0,69,0.00,,,0.00,Wunderground v.1.15,2013-04-24 19:23:00,
2013-04-24 15:25:00,81.3,69.7,29.89,SE,136,10.0,19.0,68,0.00,,,0.00,Wunderground v.1.15,2013-04-24 19:25:00,
2013-04-24 15:27:00,81.3,70.2,29.89,ESE,105,9.0,19.0,69,0.00,,,0.00,Wunderground v.1.15,2013-04-24 19:27:00,
2013-04-24 15:28:00,81.2,70.1,29.89,SSE,148,8.0,19.0,69,0.00,,,0.00,Wunderground v.1.15,2013-04-24 19:28:00,
2013-04-24 15:30:00,81.2,70.1,29.89,South,170,0.0,7.0,69,0.00,,,0.00,Wunderground v.1.15,2013-04-24 19:30:00,
2013-04-24 15:33:00,81.0,69.4,29.89,ESE,109,8.0,13.0,68,0.00,,,0.00,Wunderground v.1.15,2013-04-24 19:33:00,
2013-04-24 15:34:00,80.9,69.3,29.89,ENE,76,2.0,13.0,68,0.00,,,0.00,Wunderground v.1.15,2013-04-24 19:34:00,
2013-04-24 15:35:00,80.7,69.6,29.89,South,188,3.0,13.0,69,0.00,,,0.00,Wunderground v.1.15,2013-04-24 19:35:00,
2013-04-24 15:39:00,80.4,69.3,29.89,SSE,166,6.0,13.0,69,0.00,,,0.00,Wunderground v.1.15,2013-04-24 19:39:00,
2013-04-24 15:40:00,80.3,69.6,29.89,SE,131,13.0,13.0,70,0.00,,,0.00,Wunderground v.1.15,2013-04-24 19:40:00,
2013-04-24 15:41:00,80.3,69.6,29.89,SE,144,8.0,13.0,70,0.00,,,0.00,Wunderground v.1.15,2013-04-24 19:41:00,
2013-04-24 15:44:00,80.3,69.2,29.88,East,84,8.0,19.0,69,0.00,,,0.00,Wunderground v.1.15,2013-04-24 19:44:00,
2013-04-24 15:46:00,80.2,69.9,29.88,SSW,209,7.0,19.0,71,0.00,,,0.00,Wunderground v.1.15,2013-04-24 19:46:00,
2013-04-24 15:49:00,80.5,70.6,29.89,SE,134,7.0,19.0,72,0.00,,,0.00,Wunderground v.1.15,2013-04-24 19:49:00,
2013-04-24 15:51:00,80.6,70.3,29.88,SSE,153,1.0,16.0,71,0.00,,,0.00,Wunderground v.1.15,2013-04-24 19:51:00,
2013-04-24 15:52:00,80.6,70.3,29.88,SSE,153,0.0,16.0,71,0.00,,,0.00,Wunderground v.1.15,2013-04-24 19:52:00,
2013-04-24 15:54:00,80.6,70.3,29.88,ESE,109,1.0,16.0,71,0.00,,,0.00,Wunderground v.1.15,2013-04-24 19:54:00,
2013-04-24 15:55:00,80.6,69.9,29.89,South,187,2.0,16.0,70,0.00,,,0.00,Wunderground v.1.15,2013-04-24 19:55:00,
2013-04-24 15:56:00,80.6,69.9,29.88,South,175,5.0,16.0,70,0.00,,,0.00,Wunderground v.1.15,2013-04-24 19:56:00,
2013-04-24 15:57:00,80.6,70.3,29.88,East,98,8.0,16.0,71,0.00,,,0.00,Wunderground v.1.15,2013-04-24 19:57:00,
2013-04-24 16:00:00,80.9,70.6,29.89,ESE,107,4.0,5.0,71,0.00,,,0.00,Wunderground v.1.15,2013-04-24 20:00:00,
2013-04-24 16:01:00,81.1,70.8,29.89,South,190,2.0,6.0,71,0.00,,,0.00,Wunderground v.1.15,2013-04-24 20:01:00,
2013-04-24 16:02:00,81.2,70.9,29.88,ENE,75,6.0,7.0,71,0.00,,,0.00,Wunderground v.1.15,2013-04-24 20:02:00,
2013-04-24 16:05:00,81.0,70.3,29.89,ESE,123,7.0,14.0,70,0.00,,,0.00,Wunderground v.1.15,2013-04-24 20:05:00,
2013-04-24 16:06:00,80.9,70.6,29.89,SE,146,8.0,14.0,71,0.00,,,0.00,Wunderground v.1.15,2013-04-24 20:06:00,
2013-04-24 16:07:00,80.9,70.6,29.89,SW,227,6.0,14.0,71,0.00,,,0.00,Wunderground v.1.15,2013-04-24 20:07:00,
2013-04-24 16:10:00,80.7,70.4,29.89,East,94,6.0,15.0,71,0.00,,,0.00,Wunderground v.1.15,2013-04-24 20:10:00,
2013-04-24 16:11:00,80.6,70.3,29.89,SW,234,8.0,15.0,71,0.00,,,0.00,Wunderground v.1.15,2013-04-24 20:11:00,
2013-04-24 16:12:00,80.3,70.4,29.89,South,191,2.0,15.0,72,0.00,,,0.00,Wunderground v.1.15,2013-04-24 20:12:00,
2013-04-24 16:15:00,80.1,70.3,29.89,SSE,153,15.0,17.0,72,0.00,,,0.00,Wunderground v.1.15,2013-04-24 20:15:00,
2013-04-24 16:16:00,79.9,70.1,29.89,SSE,155,16.0,17.0,72,0.00,,,0.00,Wunderground v.1.15,2013-04-24 20:16:00,
2013-04-24 16:18:00,79.6,69.8,29.89,SSE,155,8.0,17.0,72,0.00,,,0.00,Wunderground v.1.15,2013-04-24 20:18:00,
2013-04-24 16:20:00,79.2,68.6,29.89,SSE,159,11.0,13.0,70,0.00,,,0.00,Wunderground v.1.15,2013-04-24 20:20:00,
2013-04-24 16:21:00,79.0,68.4,29.89,SSE,156,8.0,14.0,70,0.00,,,0.00,Wunderground v.1.15,2013-04-24 20:21:00,
2013-04-24 16:22:00,79.0,68.4,29.89,South,185,5.0,14.0,70,0.00,,,0.00,Wunderground v.1.15,2013-04-24 20:22:00,
2013-04-24 16:23:00,79.0,68.8,29.89,ESE,111,5.0,14.0,71,0.00,,,0.00,Wunderground v.1.15,2013-04-24 20:23:00,
2013-04-24 16:26:00,79.2,69.4,29.89,SSW,193,11.0,14.0,72,0.00,,,0.00,Wunderground v.1.15,2013-04-24 20:26:00,
2013-04-24 16:27:00,79.2,69.4,29.89,South,169,6.0,15.0,72,0.00,,,0.00,Wunderground v.1.15,2013-04-24 20:27:00,
2013-04-24 16:28:00,79.2,69.0,29.89,SSW,204,7.0,15.0,71,0.00,,,0.00,Wunderground v.1.15,2013-04-24 20:28:00,
2013-04-24 16:32:00,79.3,69.5,29.89,SSE,157,14.0,20.0,72,0.00,,,0.00,Wunderground v.1.15,2013-04-24 20:32:00,
2013-04-24 16:33:00,79.1,68.5,29.89,SSE,167,0.0,20.0,70,0.00,,,0.00,Wunderground v.1.15,2013-04-24 20:33:00,
2013-04-24 16:37:00,78.5,68.3,29.89,WSW,246,9.0,20.0,71,0.00,,,0.00,Wunderground v.1.15,2013-04-24 20:37:00,
2013-04-24 16:38:00,78.5,68.3,29.89,SSW,210,8.0,20.0,71,0.00,,,0.00,Wunderground v.1.15,2013-04-24 20:38:00,
2013-04-24 16:39:00,78.3,68.5,29.89,SSE,167,7.0,20.0,72,0.00,,,0.00,Wunderground v.1.15,2013-04-24 20:39:00,
2013-04-24 16:42:00,78.2,68.4,29.89,South,181,12.0,13.0,72,0.00,,,0.00,Wunderground v.1.15,2013-04-24 20:42:00,
2013-04-24 16:43:00,78.1,67.9,29.90,SW,230,3.0,13.0,71,0.00,,,0.00,Wunderground v.1.15,2013-04-24 20:43:00,
2013-04-24 16:44:00,78.1,68.3,29.90,SSW,202,9.0,13.0,72,0.00,,,0.00,Wunderground v.1.15,2013-04-24 20:44:00,
2013-04-24 16:47:00,78.0,68.2,29.89,South,187,6.0,16.0,72,0.00,,,0.00,Wunderground v.1.15,2013-04-24 20:47:00,
2013-04-24 16:48:00,77.9,68.5,29.89,SSW,205,9.0,16.0,73,0.00,,,0.00,Wunderground v.1.15,2013-04-24 20:48:00,
2013-04-24 16:50:00,77.7,68.4,29.89,South,180,7.0,9.0,73,0.00,,,0.00,Wunderground v.1.15,2013-04-24 20:50:00,
2013-04-24 16:52:00,77.6,68.7,29.89,South,190,10.0,15.0,74,0.00,,,0.00,Wunderground v.1.15,2013-04-24 20:52:00,
2013-04-24 16:53:00,77.5,68.6,29.89,South,180,8.0,15.0,74,0.00,,,0.00,Wunderground v.1.15,2013-04-24 20:53:00,
2013-04-24 16:54:00,77.5,68.6,29.89,SSE,157,12.0,15.0,74,0.00,,,0.00,Wunderground v.1.15,2013-04-24 20:54:00,
2013-04-24 16:56:00,77.4,68.5,29.89,SSE,157,4.0,15.0,74,0.00,,,0.00,Wunderground v.1.15,2013-04-24 20:56:00,
2013-04-24 16:57:00,77.3,68.4,29.89,SSW,207,8.0,15.0,74,0.00,,,0.00,Wunderground v.1.15,2013-04-24 20:57:00,
2013-04-24 16:58:00,77.3,68.8,29.89,SSW,197,7.0,15.0,75,0.00,,,0.00,Wunderground v.1.15,2013-04-24 20:58:00,
2013-04-24 16:59:00,77.3,68.4,29.89,SSE,155,10.0,15.0,74,0.00,,,0.00,Wunderground v.1.15,2013-04-24 20:59:00,
2013-04-24 17:01:00,77.2,68.7,29.90,SSE,168,12.0,12.0,75,0.00,,,0.00,Wunderground v.1.15,2013-04-24 21:01:00,
2013-04-24 17:02:00,77.1,68.2,29.89,SSW,198,5.0,12.0,74,0.00,,,0.00,Wunderground v.1.15,2013-04-24 21:02:00,
2013-04-24 17:03:00,77.1,68.2,29.90,SSE,148,11.0,15.0,74,0.00,,,0.00,Wunderground v.1.15,2013-04-24 21:03:00,
2013-04-24 17:04:00,77.0,68.1,29.90,ESE,107,5.0,15.0,74,0.00,,,0.00,Wunderground v.1.15,2013-04-24 21:04:00,
2013-04-24 17:06:00,77.0,68.1,29.90,SSE,162,1.0,18.0,74,0.00,,,0.00,Wunderground v.1.15,2013-04-24 21:06:00,
2013-04-24 17:08:00,77.0,68.5,29.90,South,169,7.0,18.0,75,0.00,,,0.00,Wunderground v.1.15,2013-04-24 21:08:00,
2013-04-24 17:09:00,77.0,68.5,29.90,SSE,158,10.0,18.0,75,0.00,,,0.00,Wunderground v.1.15,2013-04-24 21:09:00,
2013-04-24 17:10:00,77.0,68.5,29.90,SE,128,0.0,7.0,75,0.00,,,0.00,Wunderground v.1.15,2013-04-24 21:10:00,
2013-04-24 17:12:00,77.0,68.5,29.90,SSE,157,1.0,11.0,75,0.00,,,0.00,Wunderground v.1.15,2013-04-24 21:12:00,
2013-04-24 17:14:00,77.0,68.5,29.90,SSW,199,9.0,13.0,75,0.00,,,0.00,Wunderground v.1.15,2013-04-24 21:14:00,
2013-04-24 17:15:00,76.9,68.4,29.90,South,173,10.0,16.0,75,0.00,,,0.00,Wunderground v.1.15,2013-04-24 21:15:00,
2013-04-24 17:17:00,76.7,68.2,29.90,East,88,8.0,16.0,75,0.00,,,0.00,Wunderground v.1.15,2013-04-24 21:17:00,
2013-04-24 17:19:00,76.6,67.7,29.90,South,188,13.0,17.0,74,0.00,,,0.00,Wunderground v.1.15,2013-04-24 21:19:00,
2013-04-24 17:20:00,76.6,67.7,29.90,South,188,9.0,11.0,74,0.00,,,0.00,Wunderground v.1.15,2013-04-24 21:20:00,
2013-04-24 17:22:00,76.5,68.0,29.90,South,182,6.0,11.0,75,0.00,,,0.00,Wunderground v.1.15,2013-04-24 21:22:00,
2013-04-24 17:24:00,76.4,67.9,29.90,SSW,195,10.0,16.0,75,0.00,,,0.00,Wunderground v.1.15,2013-04-24 21:24:00,
2013-04-24 17:25:00,76.4,67.9,29.90,South,175,12.0,16.0,75,0.00,,,0.00,Wunderground v.1.15,2013-04-24 21:25:00,
2013-04-24 17:26:00,76.4,67.9,29.90,South,177,9.0,16.0,75,0.00,,,0.00,Wunderground v.1.15,2013-04-24 21:26:00,
2013-04-24 17:27:00,76.2,67.3,29.90,South,180,5.0,18.0,74,0.00,,,0.00,Wunderground v.1.15,2013-04-24 21:27:00,
2013-04-24 17:29:00,76.2,67.7,29.90,SSE,164,5.0,18.0,75,0.00,,,0.00,Wunderground v.1.15,2013-04-24 21:29:00,
2013-04-24 17:30:00,76.2,67.7,29.90,South,176,6.0,9.0,75,0.00,,,0.00,Wunderground v.1.15,2013-04-24 21:30:00,
2013-04-24 17:32:00,76.2,67.7,29.90,South,188,0.0,13.0,75,0.00,,,0.00,Wunderground v.1.15,2013-04-24 21:32:00,
2013-04-24 17:33:00,76.2,68.1,29.90,ESE,114,11.0,16.0,76,0.00,,,0.00,Wunderground v.1.15,2013-04-24 21:33:00,
2013-04-24 17:34:00,76.2,68.1,29.90,South,190,6.0,16.0,76,0.00,,,0.00,Wunderground v.1.15,2013-04-24 21:34:00,
2013-04-24 17:35:00,76.2,68.1,29.90,SW,219,7.0,16.0,76,0.00,,,0.00,Wunderground v.1.15,2013-04-24 21:35:00,
2013-04-24 17:37:00,76.2,68.1,29.90,SSE,156,2.0,19.0,76,0.00,,,0.00,Wunderground v.1.15,2013-04-24 21:37:00,
2013-04-24 17:38:00,76.1,68.0,29.90,South,186,8.0,19.0,76,0.00,,,0.00,Wunderground v.1.15,2013-04-24 21:38:00,
2013-04-24 17:39:00,76.1,68.0,29.91,SE,136,9.0,19.0,76,0.00,,,0.00,Wunderground v.1.15,2013-04-24 21:39:00,
2013-04-24 17:40:00,76.0,67.9,29.91,South,184,7.0,14.0,76,0.00,,,0.00,Wunderground v.1.15,2013-04-24 21:40:00,
2013-04-24 17:41:00,76.0,67.9,29.90,SSW,211,10.0,14.0,76,0.00,,,0.00,Wunderground v.1.15,2013-04-24 21:41:00,
2013-04-24 17:42:00,75.9,67.8,29.91,SSW,193,7.0,14.0,76,0.00,,,0.00,Wunderground v.1.15,2013-04-24 21:42:00,
2013-04-24 17:44:00,75.8,67.7,29.90,SSE,162,9.0,14.0,76,0.00,,,0.00,Wunderground v.1.15,2013-04-24 21:44:00,
2013-04-24 17:45:00,75.8,67.7,29.91,South,171,9.0,14.0,76,0.00,,,0.00,Wunderground v.1.15,2013-04-24 21:45:00,
2013-04-24 17:46:00,75.8,67.7,29.91,South,173,10.0,14.0,76,0.00,,,0.00,Wunderground v.1.15,2013-04-24 21:46:00,
2013-04-24 17:47:00,75.9,68.2,29.90,South,181,2.0,14.0,77,0.00,,,0.00,Wunderground v.1.15,2013-04-24 21:47:00,
2013-04-24 17:50:00,75.8,68.1,29.91,South,173,7.0,11.0,77,0.00,,,0.00,Wunderground v.1.15,2013-04-24 21:50:00,
2013-04-24 17:51:00,75.8,68.1,29.91,South,169,9.0,11.0,77,0.00,,,0.00,Wunderground v.1.15,2013-04-24 21:51:00,
2013-04-24 17:52:00,75.8,68.1,29.91,SSE,163,12.0,12.0,77,0.00,,,0.00,Wunderground v.1.15,2013-04-24 21:52:00,
2013-04-24 17:56:00,75.7,68.4,29.91,SSE,157,9.0,12.0,78,0.00,,,0.00,Wunderground v.1.15,2013-04-24 21:56:00,
2013-04-24 17:57:00,75.6,68.3,29.91,South,173,4.0,12.0,78,0.00,,,0.00,Wunderground v.1.15,2013-04-24 21:57:00,
2013-04-24 17:58:00,75.6,68.3,29.91,SSE,161,8.0,12.0,78,0.00,,,0.00,Wunderground v.1.15,2013-04-24 21:58:00,
2013-04-24 18:01:00,75.4,68.1,29.91,SSW,205,5.0,15.0,78,0.00,,,0.00,Wunderground v.1.15,2013-04-24 22:01:00,
2013-04-24 18:02:00,75.3,68.3,29.91,SE,144,7.0,15.0,79,0.00,,,0.00,Wunderground v.1.15,2013-04-24 22:02:00,
2013-04-24 18:03:00,75.3,68.3,29.91,SE,140,4.0,15.0,79,0.00,,,0.00,Wunderground v.1.15,2013-04-24 22:03:00,
2013-04-24 18:06:00,75.2,67.9,29.91,SSE,148,2.0,16.0,78,0.00,,,0.00,Wunderground v.1.15,2013-04-24 22:06:00,
2013-04-24 18:07:00,75.1,67.8,29.91,South,172,7.0,16.0,78,0.00,,,0.00,Wunderground v.1.15,2013-04-24 22:07:00,
2013-04-24 18:09:00,75.1,67.8,29.91,South,169,11.0,16.0,78,0.00,,,0.00,Wunderground v.1.15,2013-04-24 22:09:00,
2013-04-24 18:11:00,75.0,67.7,29.91,South,180,10.0,15.0,78,0.00,,,0.00,Wunderground v.1.15,2013-04-24 22:11:00,
2013-04-24 18:13:00,75.0,67.7,29.91,SE,141,8.0,15.0,78,0.00,,,0.00,Wunderground v.1.15,2013-04-24 22:13:00,
2013-04-24 18:14:00,75.0,67.7,29.91,South,183,4.0,15.0,78,0.00,,,0.00,Wunderground v.1.15,2013-04-24 22:14:00,
2013-04-24 18:16:00,75.0,68.0,29.91,SW,214,4.0,15.0,79,0.00,,,0.00,Wunderground v.1.15,2013-04-24 22:16:00,
2013-04-24 18:18:00,75.0,68.0,29.92,SSE,166,6.0,15.0,79,0.00,,,0.00,Wunderground v.1.15,2013-04-24 22:18:00,
2013-04-24 18:19:00,75.0,68.0,29.91,South,186,7.0,15.0,79,0.00,,,0.00,Wunderground v.1.15,2013-04-24 22:19:00,
2013-04-24 18:21:00,75.0,68.0,29.92,East,101,1.0,7.0,79,0.00,,,0.00,Wunderground v.1.15,2013-04-24 22:21:00,
2013-04-24 18:22:00,75.0,68.0,29.92,East,101,0.0,7.0,79,0.00,,,0.00,Wunderground v.1.15,2013-04-24 22:22:00,
2013-04-24 18:23:00,75.0,68.0,29.92,South,190,6.0,7.0,79,0.00,,,0.00,Wunderground v.1.15,2013-04-24 22:23:00,
2013-04-24 18:24:00,75.0,68.0,29.92,South,186,1.0,7.0,79,0.00,,,0.00,Wunderground v.1.15,2013-04-24 22:24:00,
2013-04-24 18:26:00,74.9,68.3,29.92,SSW,192,5.0,10.0,80,0.00,,,0.00,Wunderground v.1.15,2013-04-24 22:26:00,
2013-04-24 18:27:00,75.0,68.4,29.92,SSE,165,4.0,10.0,80,0.00,,,0.00,Wunderground v.1.15,2013-04-24 22:27:00,
2013-04-24 18:28:00,74.9,68.3,29.92,South,184,7.0,11.0,80,0.00,,,0.00,Wunderground v.1.15,2013-04-24 22:28:00,
2013-04-24 18:30:00,74.9,68.3,29.92,South,190,1.0,5.0,80,0.00,,,0.00,Wunderground v.1.15,2013-04-24 22:30:00,
2013-04-24 18:31:00,74.8,68.2,29.92,South,175,4.0,8.0,80,0.00,,,0.00,Wunderground v.1.15,2013-04-24 22:31:00,
2013-04-24 18:32:00,74.8,68.2,29.92,SE,140,5.0,8.0,80,0.00,,,0.00,Wunderground v.1.15,2013-04-24 22:32:00,
2013-04-24 18:33:00,74.8,68.2,29.92,SSE,165,2.0,8.0,80,0.00,,,0.00,Wunderground v.1.15,2013-04-24 22:33:00,
2013-04-24 18:35:00,74.7,68.1,29.92,South,174,1.0,8.0,80,0.00,,,0.00,Wunderground v.1.15,2013-04-24 22:35:00,
2013-04-24 18:37:00,74.6,68.0,29.92,South,174,0.0,8.0,80,0.00,,,0.00,Wunderground v.1.15,2013-04-24 22:37:00,
2013-04-24 18:38:00,74.6,68.0,29.93,SSE,159,9.0,9.0,80,0.00,,,0.00,Wunderground v.1.15,2013-04-24 22:38:00,
2013-04-24 18:41:00,74.6,68.0,29.93,SSE,161,2.0,8.0,80,0.00,,,0.00,Wunderground v.1.15,2013-04-24 22:41:00,
2013-04-24 18:42:00,74.6,68.0,29.93,SSE,161,0.0,8.0,80,0.00,,,0.00,Wunderground v.1.15,2013-04-24 22:42:00,
2013-04-24 18:43:00,74.6,68.0,29.93,SSE,161,0.0,8.0,80,0.00,,,0.00,Wunderground v.1.15,2013-04-24 22:43:00,
2013-04-24 18:46:00,74.5,67.9,29.93,SSE,161,0.0,8.0,80,0.00,,,0.00,Wunderground v.1.15,2013-04-24 22:46:00,
2013-04-24 18:47:00,74.5,67.9,29.93,SSE,161,0.0,8.0,80,0.00,,,0.00,Wunderground v.1.15,2013-04-24 22:47:00,
2013-04-24 18:48:00,74.5,67.9,29.93,ENE,77,6.0,8.0,80,0.00,,,0.00,Wunderground v.1.15,2013-04-24 22:48:00,
2013-04-24 18:51:00,74.4,67.8,29.93,East,82,3.0,3.0,80,0.00,,,0.00,Wunderground v.1.15,2013-04-24 22:51:00,
2013-04-24 18:52:00,74.4,67.8,29.94,East,82,3.0,4.0,80,0.00,,,0.00,Wunderground v.1.15,2013-04-24 22:52:00,
2013-04-24 18:53:00,74.3,67.7,29.94,East,83,3.0,4.0,80,0.00,,,0.00,Wunderground v.1.15,2013-04-24 22:53:00,
2013-04-24 18:56:00,74.3,67.7,29.93,East,83,3.0,4.0,80,0.00,,,0.00,Wunderground v.1.15,2013-04-24 22:56:00,
2013-04-24 18:57:00,74.3,67.7,29.93,East,83,4.0,4.0,80,0.00,,,0.00,Wunderground v.1.15,2013-04-24 22:57:00,
2013-04-24 18:58:00,74.3,67.7,29.93,East,83,1.0,4.0,80,0.00,,,0.00,Wunderground v.1.15,2013-04-24 22:58:00,
2013-04-24 18:59:00,74.3,67.7,29.93,East,83,0.0,4.0,80,0.00,,,0.00,Wunderground v.1.15,2013-04-24 22:59:00,
2013-04-24 19:01:00,74.2,67.6,29.93,East,96,0.0,5.0,80,0.00,,,0.00,Wunderground v.1.15,2013-04-24 23:01:00,
2013-04-24 19:02:00,74.2,67.6,29.93,East,97,0.0,5.0,80,0.00,,,0.00,Wunderground v.1.15,2013-04-24 23:02:00,
2013-04-24 19:03:00,74.2,67.6,29.93,East,97,0.0,5.0,80,0.00,,,0.00,Wunderground v.1.15,2013-04-24 23:03:00,
2013-04-24 19:04:00,74.2,68.0,29.94,East,101,2.0,5.0,81,0.00,,,0.00,Wunderground v.1.15,2013-04-24 23:04:00,
2013-04-24 19:06:00,74.2,68.0,29.94,SSE,162,4.0,8.0,81,0.00,,,0.00,Wunderground v.1.15,2013-04-24 23:06:00,
2013-04-24 19:08:00,74.2,68.0,29.94,SSW,199,7.0,8.0,81,0.00,,,0.00,Wunderground v.1.15,2013-04-24 23:08:00,
2013-04-24 19:09:00,74.2,68.0,29.94,SSW,198,4.0,8.0,81,0.00,,,0.00,Wunderground v.1.15,2013-04-24 23:09:00,
2013-04-24 19:12:00,74.2,68.0,29.93,SSW,194,5.0,7.0,81,0.00,,,0.00,Wunderground v.1.15,2013-04-24 23:12:00,
2013-04-24 19:13:00,74.2,68.0,29.94,South,169,7.0,9.0,81,0.00,,,0.00,Wunderground v.1.15,2013-04-24 23:13:00,
2013-04-24 19:14:00,74.2,68.0,29.94,South,181,4.0,13.0,81,0.00,,,0.00,Wunderground v.1.15,2013-04-24 23:14:00,
2013-04-24 19:15:00,74.2,68.0,29.94,South,184,4.0,13.0,81,0.00,,,0.00,Wunderground v.1.15,2013-04-24 23:15:00,
2013-04-24 19:17:00,74.3,68.4,29.94,South,175,7.0,13.0,82,0.00,,,0.00,Wunderground v.1.15,2013-04-24 23:17:00,
2013-04-24 19:18:00,74.3,68.4,29.94,South,178,4.0,13.0,82,0.00,,,0.00,Wunderground v.1.15,2013-04-24 23:18:00,
2013-04-24 19:19:00,74.3,68.4,29.94,South,176,2.0,13.0,82,0.00,,,0.00,Wunderground v.1.15,2013-04-24 23:19:00,
2013-04-24 19:20:00,74.2,68.0,29.94,South,176,0.0,5.0,81,0.00,,,0.00,Wunderground v.1.15,2013-04-24 23:20:00,
2013-04-24 19:22:00,74.2,68.0,29.94,SSE,149,0.0,8.0,81,0.00,,,0.00,Wunderground v.1.15,2013-04-24 23:22:00,
2013-04-24 19:23:00,74.2,68.0,29.94,SSE,149,0.0,8.0,81,0.00,,,0.00,Wunderground v.1.15,2013-04-24 23:23:00,
2013-04-24 19:24:00,74.2,68.0,29.94,SSE,149,0.0,8.0,81,0.00,,,0.00,Wunderground v.1.15,2013-04-24 23:24:00,
2013-04-24 19:25:00,74.2,68.0,29.94,SSE,156,6.0,8.0,81,0.00,,,0.00,Wunderground v.1.15,2013-04-24 23:25:00,
2013-04-24 19:27:00,74.1,67.9,29.94,SSE,147,0.0,8.0,81,0.00,,,0.00,Wunderground v.1.15,2013-04-24 23:27:00,
2013-04-24 19:29:00,74.1,67.9,29.94,SW,217,2.0,8.0,81,0.00,,,0.00,Wunderground v.1.15,2013-04-24 23:29:00,
2013-04-24 19:30:00,74.1,67.9,29.94,SE,129,6.0,6.0,81,0.00,,,0.00,Wunderground v.1.15,2013-04-24 23:30:00,
2013-04-24 19:32:00,74.0,67.8,29.94,SE,132,0.0,6.0,81,0.00,,,0.00,Wunderground v.1.15,2013-04-24 23:32:00,
2013-04-24 19:34:00,74.0,68.2,29.94,SE,128,4.0,6.0,82,0.00,,,0.00,Wunderground v.1.15,2013-04-24 23:34:00,
2013-04-24 19:35:00,74.0,68.2,29.94,SE,128,0.0,6.0,82,0.00,,,0.00,Wunderground v.1.15,2013-04-24 23:35:00,
2013-04-24 19:38:00,74.0,68.2,29.94,SE,128,0.0,6.0,82,0.00,,,0.00,Wunderground v.1.15,2013-04-24 23:38:00,
2013-04-24 19:39:00,74.0,68.2,29.94,SE,129,0.0,6.0,82,0.00,,,0.00,Wunderground v.1.15,2013-04-24 23:39:00,
2013-04-24 19:40:00,74.0,68.2,29.94,SE,129,0.0,1.0,82,0.00,,,0.00,Wunderground v.1.15,2013-04-24 23:40:00,
2013-04-24 19:41:00,74.0,68.2,29.94,SE,128,0.0,1.0,82,0.00,,,0.00,Wunderground v.1.15,2013-04-24 23:41:00,
2013-04-24 19:44:00,73.9,68.1,29.94,SE,128,0.0,1.0,82,0.00,,,0.00,Wunderground v.1.15,2013-04-24 23:44:00,
2013-04-24 19:45:00,73.9,68.1,29.94,SE,129,1.0,2.0,82,0.00,,,0.00,Wunderground v.1.15,2013-04-24 23:45:00,
2013-04-24 19:46:00,73.9,68.1,29.95,SE,128,1.0,4.0,82,0.00,,,0.00,Wunderground v.1.15,2013-04-24 23:46:00,
2013-04-24 19:49:00,73.9,68.4,29.94,SSW,211,0.0,5.0,83,0.00,,,0.00,Wunderground v.1.15,2013-04-24 23:49:00,
2013-04-24 19:50:00,73.9,68.4,29.95,SSW,196,5.0,5.0,83,0.00,,,0.00,Wunderground v.1.15,2013-04-24 23:50:00,
2013-04-24 19:51:00,73.8,68.3,29.95,SSW,196,2.0,5.0,83,0.00,,,0.00,Wunderground v.1.15,2013-04-24 23:51:00,
2013-04-24 19:54:00,73.9,68.4,29.95,SSW,196,0.0,5.0,83,0.00,,,0.00,Wunderground v.1.15,2013-04-24 23:54:00,
2013-04-24 19:55:00,73.9,68.4,29.95,SSW,196,4.0,5.0,83,0.00,,,0.00,Wunderground v.1.15,2013-04-24 23:55:00,
2013-04-24 19:56:00,73.9,68.4,29.95,SSW,196,1.0,5.0,83,0.00,,,0.00,Wunderground v.1.15,2013-04-24 23:56:00,
2013-04-24 20:00:00,73.9,68.4,29.95,SSW,196,0.0,1.0,83,0.00,,,0.00,Wunderground v.1.15,2013-04-25 00:00:00,
2013-04-24 20:01:00,73.9,68.4,29.95,SSW,196,2.0,4.0,83,0.00,,,0.00,Wunderground v.1.15,2013-04-25 00:01:00,
2013-04-24 20:02:00,73.9,68.4,29.95,SSW,196,0.0,4.0,83,0.00,,,0.00,Wunderground v.1.15,2013-04-25 00:02:00,
2013-04-24 20:05:00,73.8,68.3,29.95,SSW,196,4.0,5.0,83,0.00,,,0.00,Wunderground v.1.15,2013-04-25 00:05:00,
2013-04-24 20:06:00,73.8,68.3,29.95,SSW,196,0.0,5.0,83,0.00,,,0.00,Wunderground v.1.15,2013-04-25 00:06:00,
2013-04-24 20:07:00,73.8,68.3,29.95,SSW,196,0.0,5.0,83,0.00,,,0.00,Wunderground v.1.15,2013-04-25 00:07:00,
2013-04-24 20:10:00,73.8,68.3,29.95,SSW,196,3.0,3.0,83,0.00,,,0.00,Wunderground v.1.15,2013-04-25 00:10:00,
2013-04-24 20:11:00,73.7,68.2,29.95,SSW,196,1.0,4.0,83,0.00,,,0.00,Wunderground v.1.15,2013-04-25 00:11:00,
2013-04-24 20:12:00,73.7,68.2,29.95,SSW,196,2.0,4.0,83,0.00,,,0.00,Wunderground v.1.15,2013-04-25 00:12:00,
2013-04-24 20:15:00,73.7,68.2,29.95,South,190,4.0,5.0,83,0.00,,,0.00,Wunderground v.1.15,2013-04-25 00:15:00,
2013-04-24 20:16:00,73.7,68.2,29.95,South,189,0.0,5.0,83,0.00,,,0.00,Wunderground v.1.15,2013-04-25 00:16:00,
2013-04-24 20:17:00,73.7,68.2,29.95,South,189,0.0,5.0,83,0.00,,,0.00,Wunderground v.1.15,2013-04-25 00:17:00,
2013-04-24 20:18:00,73.7,68.2,29.95,South,189,0.0,5.0,83,0.00,,,0.00,Wunderground v.1.15,2013-04-25 00:18:00,
2013-04-24 20:20:00,73.7,68.2,29.95,South,182,0.0,1.0,83,0.00,,,0.00,Wunderground v.1.15,2013-04-25 00:20:00,
2013-04-24 20:21:00,73.7,68.2,29.95,South,182,1.0,4.0,83,0.00,,,0.00,Wunderground v.1.15,2013-04-25 00:21:00,
2013-04-24 20:22:00,73.7,68.2,29.95,South,182,0.0,4.0,83,0.00,,,0.00,Wunderground v.1.15,2013-04-25 00:22:00,
2013-04-24 20:23:00,73.7,68.2,29.95,South,177,1.0,6.0,83,0.00,,,0.00,Wunderground v.1.15,2013-04-25 00:23:00,
2013-04-24 20:26:00,73.7,68.2,29.95,South,177,0.0,6.0,83,0.00,,,0.00,Wunderground v.1.15,2013-04-25 00:26:00,
2013-04-24 20:27:00,73.7,68.2,29.95,South,177,0.0,6.0,83,0.00,,,0.00,Wunderground v.1.15,2013-04-25 00:27:00,
2013-04-24 20:28:00,73.7,68.2,29.95,South,177,0.0,6.0,83,0.00,,,0.00,Wunderground v.1.15,2013-04-25 00:28:00,
2013-04-24 20:31:00,73.7,68.2,29.95,East,92,0.0,6.0,83,0.00,,,0.00,Wunderground v.1.15,2013-04-25 00:31:00,
2013-04-24 20:33:00,73.7,68.2,29.95,SE,130,4.0,9.0,83,0.00,,,0.00,Wunderground v.1.15,2013-04-25 00:33:00,
2013-04-24 20:34:00,73.7,68.2,29.95,SSW,192,0.0,9.0,83,0.00,,,0.00,Wunderground v.1.15,2013-04-25 00:34:00,
2013-04-24 20:36:00,73.6,68.1,29.95,South,190,0.0,9.0,83,0.00,,,0.00,Wunderground v.1.15,2013-04-25 00:36:00,
2013-04-24 20:38:00,73.6,68.1,29.95,South,190,0.0,9.0,83,0.00,,,0.00,Wunderground v.1.15,2013-04-25 00:38:00,
2013-04-24 20:40:00,73.5,68.0,29.95,SE,138,0.0,2.0,83,0.00,,,0.00,Wunderground v.1.15,2013-04-25 00:40:00,
2013-04-24 20:42:00,73.6,68.1,29.96,ENE,59,3.0,11.0,83,0.00,,,0.00,Wunderground v.1.15,2013-04-25 00:42:00,
2013-04-24 20:43:00,73.6,68.1,29.96,ENE,61,4.0,11.0,83,0.00,,,0.00,Wunderground v.1.15,2013-04-25 00:43:00,
2013-04-24 20:44:00,73.6,68.1,29.96,ENE,61,4.0,11.0,83,0.00,,,0.00,Wunderground v.1.15,2013-04-25 00:44:00,
2013-04-24 20:45:00,73.6,68.1,29.96,SSE,147,5.0,11.0,83,0.00,,,0.00,Wunderground v.1.15,2013-04-25 00:45:00,
2013-04-24 20:47:00,73.6,68.5,29.96,SSE,165,5.0,11.0,84,0.00,,,0.00,Wunderground v.1.15,2013-04-25 00:47:00,
2013-04-24 20:48:00,73.6,68.5,29.96,SSE,165,4.0,11.0,84,0.00,,,0.00,Wunderground v.1.15,2013-04-25 00:48:00,
2013-04-24 20:49:00,73.6,68.5,29.96,SE,136,1.0,11.0,84,0.00,,,0.00,Wunderground v.1.15,2013-04-25 00:49:00,
2013-04-24 20:50:00,73.6,68.5,29.96,SE,136,1.0,3.0,84,0.00,,,0.00,Wunderground v.1.15,2013-04-25 00:50:00,
2013-04-24 20:51:00,73.6,68.5,29.96,SE,136,2.0,3.0,84,0.00,,,0.00,Wunderground v.1.15,2013-04-25 00:51:00,
2013-04-24 20:52:00,73.6,68.5,29.96,SSE,163,0.0,5.0,84,0.00,,,0.00,Wunderground v.1.15,2013-04-25 00:52:00,
2013-04-24 20:54:00,73.6,68.5,29.96,SSE,154,9.0,9.0,84,0.00,,,0.00,Wunderground v.1.15,2013-04-25 00:54:00,
2013-04-24 20:55:00,73.5,68.4,29.96,SSE,158,4.0,9.0,84,0.00,,,0.00,Wunderground v.1.15,2013-04-25 00:55:00,
2013-04-24 20:56:00,73.6,68.5,29.96,ESE,121,2.0,9.0,84,0.00,,,0.00,Wunderground v.1.15,2013-04-25 00:56:00,
2013-04-24 20:57:00,73.6,68.5,29.96,SE,142,5.0,9.0,84,0.00,,,0.00,Wunderground v.1.15,2013-04-25 00:57:00,
2013-04-24 20:59:00,73.5,68.0,29.96,East,92,2.0,9.0,83,0.00,,,0.00,Wunderground v.1.15,2013-04-25 00:59:00,
2013-04-24 21:00:00,73.5,68.0,29.96,East,92,2.0,3.0,83,0.00,,,0.00,Wunderground v.1.15,2013-04-25 01:00:00,
2013-04-24 21:01:00,73.5,68.0,29.96,East,92,0.0,4.0,83,0.00,,,0.00,Wunderground v.1.15,2013-04-25 01:01:00,
2013-04-24 21:02:00,73.5,68.0,29.96,East,92,0.0,5.0,83,0.00,,,0.00,Wunderground v.1.15,2013-04-25 01:02:00,
2013-04-24 21:04:00,73.6,68.1,29.96,East,92,0.0,5.0,83,0.00,,,0.00,Wunderground v.1.15,2013-04-25 01:04:00,
2013-04-24 21:05:00,73.6,68.1,29.96,East,92,0.0,5.0,83,0.00,,,0.00,Wunderground v.1.15,2013-04-25 01:05:00,
2013-04-24 21:06:00,73.6,68.1,29.97,East,92,0.0,5.0,83,0.00,,,0.00,Wunderground v.1.15,2013-04-25 01:06:00,
2013-04-24 21:08:00,73.6,68.5,29.97,ESE,115,0.0,8.0,84,0.00,,,0.00,Wunderground v.1.15,2013-04-25 01:08:00,
2013-04-24 21:09:00,73.6,68.5,29.96,ESE,115,4.0,8.0,84,0.00,,,0.00,Wunderground v.1.15,2013-04-25 01:09:00,
2013-04-24 21:10:00,73.6,68.5,29.96,ESE,115,5.0,6.0,84,0.00,,,0.00,Wunderground v.1.15,2013-04-25 01:10:00,
2013-04-24 21:11:00,73.5,68.4,29.96,SE,137,6.0,7.0,84,0.00,,,0.00,Wunderground v.1.15,2013-04-25 01:11:00,
2013-04-24 21:13:00,73.5,68.4,29.96,SE,137,1.0,7.0,84,0.00,,,0.00,Wunderground v.1.15,2013-04-25 01:13:00,
2013-04-24 21:15:00,73.5,68.4,29.96,SE,137,2.0,7.0,84,0.00,,,0.00,Wunderground v.1.15,2013-04-25 01:15:00,
2013-04-24 21:16:00,73.5,68.4,29.96,SE,137,0.0,7.0,84,0.00,,,0.00,Wunderground v.1.15,2013-04-25 01:16:00,
2013-04-24 21:17:00,73.5,68.4,29.96,SE,137,0.0,7.0,84,0.00,,,0.00,Wunderground v.1.15,2013-04-25 01:17:00,
2013-04-24 21:19:00,73.5,68.4,29.96,SE,137,4.0,7.0,84,0.00,,,0.00,Wunderground v.1.15,2013-04-25 01:19:00,
2013-04-24 21:20:00,73.5,68.4,29.96,SE,130,7.0,7.0,84,0.00,,,0.00,Wunderground v.1.15,2013-04-25 01:20:00,
2013-04-24 21:21:00,73.5,68.4,29.96,ENE,65,7.0,7.0,84,0.00,,,0.00,Wunderground v.1.15,2013-04-25 01:21:00,
2013-04-24 21:22:00,73.6,68.8,29.97,East,86,3.0,11.0,85,0.00,,,0.00,Wunderground v.1.15,2013-04-25 01:22:00,
2013-04-24 21:24:00,73.6,68.8,29.97,SSE,155,4.0,11.0,85,0.00,,,0.00,Wunderground v.1.15,2013-04-25 01:24:00,
2013-04-24 21:25:00,73.7,68.9,29.97,SSE,155,0.0,11.0,85,0.00,,,0.00,Wunderground v.1.15,2013-04-25 01:25:00,
2013-04-24 21:26:00,73.7,68.9,29.97,SSE,155,0.0,11.0,85,0.00,,,0.00,Wunderground v.1.15,2013-04-25 01:26:00,
2013-04-24 21:28:00,73.7,68.9,29.97,ESE,113,6.0,11.0,85,0.00,,,0.00,Wunderground v.1.15,2013-04-25 01:28:00,
2013-04-24 21:29:00,73.7,68.9,29.97,SE,134,0.0,11.0,85,0.00,,,0.00,Wunderground v.1.15,2013-04-25 01:29:00,
2013-04-24 21:30:00,73.6,68.8,29.97,SE,134,0.0,3.0,85,0.00,,,0.00,Wunderground v.1.15,2013-04-25 01:30:00,
2013-04-24 21:31:00,73.7,68.9,29.97,NE,44,5.0,5.0,85,0.00,,,0.00,Wunderground v.1.15,2013-04-25 01:31:00,
2013-04-24 21:33:00,73.7,68.9,29.97,NE,44,0.0,6.0,85,0.00,,,0.00,Wunderground v.1.15,2013-04-25 01:33:00,
2013-04-24 21:35:00,73.7,68.9,29.97,SW,217,0.0,6.0,85,0.00,,,0.00,Wunderground v.1.15,2013-04-25 01:35:00,
2013-04-24 21:36:00,73.7,68.9,29.97,SSW,203,4.0,6.0,85,0.00,,,0.00,Wunderground v.1.15,2013-04-25 01:36:00,
2013-04-24 21:37:00,73.7,68.9,29.97,SSW,200,2.0,6.0,85,0.00,,,0.00,Wunderground v.1.15,2013-04-25 01:37:00,
2013-04-24 21:38:00,73.7,68.9,29.97,SSW,200,0.0,6.0,85,0.00,,,0.00,Wunderground v.1.15,2013-04-25 01:38:00,
2013-04-24 21:40:00,73.8,69.0,29.97,SSW,200,0.0,1.0,85,0.00,,,0.00,Wunderground v.1.15,2013-04-25 01:40:00,
2013-04-24 21:41:00,73.8,69.0,29.97,SSW,200,2.0,5.0,85,0.00,,,0.00,Wunderground v.1.15,2013-04-25 01:41:00,
2013-04-24 21:42:00,73.8,69.0,29.97,SSW,200,0.0,5.0,85,0.00,,,0.00,Wunderground v.1.15,2013-04-25 01:42:00,
2013-04-24 21:44:00,73.8,69.0,29.97,SSW,200,0.0,5.0,85,0.00,,,0.00,Wunderground v.1.15,2013-04-25 01:44:00,
2013-04-24 21:45:00,73.8,69.0,29.97,SSW,200,1.0,5.0,85,0.00,,,0.00,Wunderground v.1.15,2013-04-25 01:45:00,
2013-04-24 21:46:00,73.7,68.9,29.97,SSW,200,2.0,5.0,85,0.00,,,0.00,Wunderground v.1.15,2013-04-25 01:46:00,
2013-04-24 21:47:00,73.8,69.0,29.97,SSW,200,1.0,5.0,85,0.00,,,0.00,Wunderground v.1.15,2013-04-25 01:47:00,
2013-04-24 21:48:00,73.8,69.0,29.97,SSW,200,0.0,5.0,85,0.00,,,0.00,Wunderground v.1.15,2013-04-25 01:48:00,
2013-04-24 21:49:00,73.7,68.9,29.97,NE,47,3.0,6.0,85,0.00,,,0.00,Wunderground v.1.15,2013-04-25 01:49:00,
2013-04-24 21:51:00,73.8,69.0,29.97,NE,48,0.0,3.0,85,0.00,,,0.00,Wunderground v.1.15,2013-04-25 01:51:00,
2013-04-24 21:52:00,73.8,69.0,29.97,NE,48,0.0,3.0,85,0.00,,,0.00,Wunderground v.1.15,2013-04-25 01:52:00,
2013-04-24 21:53:00,73.8,69.0,29.97,NE,48,0.0,3.0,85,0.00,,,0.00,Wunderground v.1.15,2013-04-25 01:53:00,
2013-04-24 21:55:00,73.8,69.0,29.97,SSW,197,4.0,6.0,85,0.00,,,0.00,Wunderground v.1.15,2013-04-25 01:55:00,
2013-04-24 21:56:00,73.8,69.0,29.97,SSE,150,0.0,13.0,85,0.00,,,0.00,Wunderground v.1.15,2013-04-25 01:56:00,
2013-04-24 21:57:00,73.8,69.0,29.97,SSE,154,8.0,13.0,85,0.00,,,0.00,Wunderground v.1.15,2013-04-25 01:57:00,
2013-04-24 21:58:00,73.8,69.0,29.97,South,181,4.0,13.0,85,0.00,,,0.00,Wunderground v.1.15,2013-04-25 01:58:00,
2013-04-24 22:00:00,73.8,69.0,29.97,SSW,201,3.0,3.0,85,0.00,,,0.00,Wunderground v.1.15,2013-04-25 02:00:00,
2013-04-24 22:01:00,73.8,68.7,29.97,SSW,201,0.0,4.0,84,0.00,,,0.00,Wunderground v.1.15,2013-04-25 02:01:00,
2013-04-24 22:02:00,73.8,68.7,29.97,SSW,201,0.0,4.0,84,0.00,,,0.00,Wunderground v.1.15,2013-04-25 02:02:00,
2013-04-24 22:03:00,73.8,68.7,29.97,SSW,201,0.0,4.0,84,0.00,,,0.00,Wunderground v.1.15,2013-04-25 02:03:00,
2013-04-24 22:04:00,73.8,68.7,29.97,SSW,201,0.0,4.0,84,0.00,,,0.00,Wunderground v.1.15,2013-04-25 02:04:00,
2013-04-24 22:05:00,73.8,68.7,29.97,SSW,193,2.0,8.0,84,0.00,,,0.00,Wunderground v.1.15,2013-04-25 02:05:00,
2013-04-24 22:07:00,73.8,69.0,29.97,SSW,192,2.0,8.0,85,0.00,,,0.00,Wunderground v.1.15,2013-04-25 02:07:00,
2013-04-24 22:08:00,73.8,69.0,29.97,East,91,5.0,11.0,85,0.00,,,0.00,Wunderground v.1.15,2013-04-25 02:08:00,
2013-04-24 22:09:00,73.8,68.7,29.97,East,91,0.0,11.0,84,0.00,,,0.00,Wunderground v.1.15,2013-04-25 02:09:00,
2013-04-24 22:10:00,73.8,68.7,29.97,East,92,0.0,5.0,84,0.00,,,0.00,Wunderground v.1.15,2013-04-25 02:10:00,
2013-04-24 22:12:00,73.8,69.0,29.97,SSW,195,6.0,8.0,85,0.00,,,0.00,Wunderground v.1.15,2013-04-25 02:12:00,
2013-04-24 22:20:00,73.8,69.0,29.97,SSE,162,4.0,6.0,85,0.00,,,0.00,Wunderground v.1.15,2013-04-25 02:20:00,
2013-04-24 22:21:00,73.8,69.0,29.97,SSE,165,1.0,9.0,85,0.00,,,0.00,Wunderground v.1.15,2013-04-25 02:21:00,
2013-04-24 22:25:00,73.8,69.0,29.97,SSW,193,6.0,9.0,85,0.00,,,0.00,Wunderground v.1.15,2013-04-25 02:25:00,
2013-04-24 22:26:00,73.9,69.4,29.97,South,184,9.0,13.0,86,0.00,,,0.00,Wunderground v.1.15,2013-04-25 02:26:00,
2013-04-24 22:30:00,74.2,70.1,29.97,South,170,14.0,14.0,87,0.00,,,0.00,Wunderground v.1.15,2013-04-25 02:30:00,
2013-04-24 22:31:00,74.1,70.0,29.97,SSE,157,7.0,14.0,87,0.00,,,0.00,Wunderground v.1.15,2013-04-25 02:31:00,
2013-04-24 22:32:00,74.2,69.7,29.97,SSE,160,10.0,14.0,86,0.00,,,0.00,Wunderground v.1.15,2013-04-25 02:32:00,
2013-04-24 22:35:00,74.1,69.6,29.96,South,187,4.0,15.0,86,0.00,,,0.00,Wunderground v.1.15,2013-04-25 02:35:00,
2013-04-24 22:36:00,74.1,69.6,29.96,SSW,196,9.0,15.0,86,0.00,,,0.00,Wunderground v.1.15,2013-04-25 02:36:00,
2013-04-24 22:37:00,74.0,69.2,29.96,SSW,200,9.0,15.0,85,0.00,,,0.00,Wunderground v.1.15,2013-04-25 02:37:00,
2013-04-24 22:40:00,74.0,69.2,29.97,South,171,8.0,9.0,85,0.00,,,0.00,Wunderground v.1.15,2013-04-25 02:40:00,
2013-04-24 22:41:00,74.0,69.2,29.97,SE,146,10.0,11.0,85,0.00,,,0.00,Wunderground v.1.15,2013-04-25 02:41:00,
2013-04-24 22:42:00,74.0,69.2,29.97,SSW,213,6.0,11.0,85,0.00,,,0.00,Wunderground v.1.15,2013-04-25 02:42:00,
2013-04-24 22:46:00,74.0,69.2,29.97,South,171,9.0,17.0,85,0.00,,,0.00,Wunderground v.1.15,2013-04-25 02:46:00,
2013-04-24 22:47:00,74.0,69.2,29.96,SSW,193,7.0,17.0,85,0.00,,,0.00,Wunderground v.1.15,2013-04-25 02:47:00,
2013-04-24 22:48:00,74.0,68.9,29.97,South,169,13.0,17.0,84,0.00,,,0.00,Wunderground v.1.15,2013-04-25 02:48:00,
2013-04-24 22:51:00,74.1,69.3,29.97,SSE,157,10.0,12.0,85,0.00,,,0.00,Wunderground v.1.15,2013-04-25 02:51:00,
2013-04-24 22:52:00,74.2,69.1,29.97,SSE,152,8.0,12.0,84,0.00,,,0.00,Wunderground v.1.15,2013-04-25 02:52:00,
2013-04-24 22:54:00,74.1,69.0,29.97,ESE,118,2.0,12.0,84,0.00,,,0.00,Wunderground v.1.15,2013-04-25 02:54:00,
2013-04-24 22:56:00,74.1,69.0,29.97,SSE,155,11.0,14.0,84,0.00,,,0.00,Wunderground v.1.15,2013-04-25 02:56:00,
2013-04-24 22:57:00,74.1,69.0,29.97,SW,218,6.0,14.0,84,0.00,,,0.00,Wunderground v.1.15,2013-04-25 02:57:00,
2013-04-24 22:59:00,74.1,69.0,29.96,SW,216,7.0,14.0,84,0.00,,,0.00,Wunderground v.1.15,2013-04-25 02:59:00,
2013-04-24 23:01:00,74.1,69.0,29.96,South,187,6.0,12.0,84,0.00,,,0.00,Wunderground v.1.15,2013-04-25 03:01:00,
2013-04-24 23:02:00,74.1,69.0,29.96,SSE,168,7.0,12.0,84,0.00,,,0.00,Wunderground v.1.15,2013-04-25 03:02:00,
2013-04-24 23:04:00,74.1,69.0,29.96,SSE,150,6.0,12.0,84,0.00,,,0.00,Wunderground v.1.15,2013-04-25 03:04:00,
2013-04-24 23:06:00,74.0,68.9,29.96,SE,134,6.0,12.0,84,0.00,,,0.00,Wunderground v.1.15,2013-04-25 03:06:00,
2013-04-24 23:07:00,74.0,68.9,29.96,South,188,7.0,12.0,84,0.00,,,0.00,Wunderground v.1.15,2013-04-25 03:07:00,
2013-04-24 23:09:00,74.0,68.9,29.96,South,190,9.0,12.0,84,0.00,,,0.00,Wunderground v.1.15,2013-04-25 03:09:00,
2013-04-24 23:11:00,74.0,68.9,29.96,South,186,2.0,8.0,84,0.00,,,0.00,Wunderground v.1.15,2013-04-25 03:11:00,
2013-04-24 23:12:00,74.0,68.9,29.96,South,186,0.0,8.0,84,0.00,,,0.00,Wunderground v.1.15,2013-04-25 03:12:00,
2013-04-24 23:13:00,74.0,68.9,29.96,South,185,2.0,8.0,84,0.00,,,0.00,Wunderground v.1.15,2013-04-25 03:13:00,
2013-04-24 23:14:00,73.9,69.1,29.96,South,176,1.0,11.0,85,0.00,,,0.00,Wunderground v.1.15,2013-04-25 03:14:00,
2013-04-24 23:15:00,73.9,69.1,29.96,SE,132,6.0,11.0,85,0.00,,,0.00,Wunderground v.1.15,2013-04-25 03:15:00,
2013-04-24 23:16:00,74.0,69.2,29.96,SSE,157,4.0,11.0,85,0.00,,,0.00,Wunderground v.1.15,2013-04-25 03:16:00,
2013-04-24 23:17:00,73.9,69.1,29.96,SSE,161,7.0,11.0,85,0.00,,,0.00,Wunderground v.1.15,2013-04-25 03:17:00,
2013-04-24 23:18:00,74.0,69.2,29.96,South,190,7.0,11.0,85,0.00,,,0.00,Wunderground v.1.15,2013-04-25 03:18:00,
2013-04-24 23:20:00,74.0,69.2,29.96,South,175,1.0,4.0,85,0.00,,,0.00,Wunderground v.1.15,2013-04-25 03:20:00,
2013-04-24 23:22:00,74.0,69.2,29.96,SSE,162,10.0,13.0,85,0.00,,,0.00,Wunderground v.1.15,2013-04-25 03:22:00,
2013-04-24 23:23:00,73.9,69.1,29.96,SSW,196,4.0,13.0,85,0.00,,,0.00,Wunderground v.1.15,2013-04-25 03:23:00,
2013-04-24 23:25:00,73.9,69.1,29.96,South,172,8.0,13.0,85,0.00,,,0.00,Wunderground v.1.15,2013-04-25 03:25:00,
2013-04-24 23:27:00,73.9,69.1,29.96,SSW,200,5.0,13.0,85,0.00,,,0.00,Wunderground v.1.15,2013-04-25 03:27:00,
2013-04-24 23:28:00,73.9,69.1,29.96,SSW,201,11.0,13.0,85,0.00,,,0.00,Wunderground v.1.15,2013-04-25 03:28:00,
2013-04-24 23:30:00,73.9,69.1,29.96,SSW,200,5.0,7.0,85,0.00,,,0.00,Wunderground v.1.15,2013-04-25 03:30:00,
2013-04-24 23:32:00,73.9,69.1,29.95,South,183,11.0,12.0,85,0.00,,,0.00,Wunderground v.1.15,2013-04-25 03:32:00,
2013-04-24 23:34:00,73.9,69.1,29.95,SSE,161,7.0,12.0,85,0.00,,,0.00,Wunderground v.1.15,2013-04-25 03:34:00,
2013-04-24 23:35:00,73.9,69.1,29.95,SSE,159,5.0,12.0,85,0.00,,,0.00,Wunderground v.1.15,2013-04-25 03:35:00,
2013-04-24 23:37:00,73.9,69.1,29.95,SE,136,4.0,12.0,85,0.00,,,0.00,Wunderground v.1.15,2013-04-25 03:37:00,
2013-04-24 23:38:00,73.9,69.1,29.95,SE,142,5.0,12.0,85,0.00,,,0.00,Wunderground v.1.15,2013-04-25 03:38:00,
2013-04-24 23:39:00,73.9,69.1,29.95,South,178,10.0,14.0,85,0.00,,,0.00,Wunderground v.1.15,2013-04-25 03:39:00,
2013-04-24 23:40:00,73.9,69.1,29.95,South,169,9.0,10.0,85,0.00,,,0.00,Wunderground v.1.15,2013-04-25 03:40:00,
2013-04-24 23:42:00,73.9,69.1,29.95,SSE,164,8.0,12.0,85,0.00,,,0.00,Wunderground v.1.15,2013-04-25 03:42:00,
2013-04-24 23:43:00,73.9,69.1,29.95,SSE,148,9.0,13.0,85,0.00,,,0.00,Wunderground v.1.15,2013-04-25 03:43:00,
2013-04-24 23:44:00,73.9,69.1,29.95,South,188,6.0,13.0,85,0.00,,,0.00,Wunderground v.1.15,2013-04-25 03:44:00,
2013-04-24 23:45:00,73.9,69.1,29.95,SSE,155,9.0,15.0,85,0.00,,,0.00,Wunderground v.1.15,2013-04-25 03:45:00,
2013-04-24 23:46:00,73.9,69.1,29.95,South,171,9.0,15.0,85,0.00,,,0.00,Wunderground v.1.15,2013-04-25 03:46:00,
2013-04-24 23:47:00,73.9,69.1,29.95,ESE,118,4.0,15.0,85,0.00,,,0.00,Wunderground v.1.15,2013-04-25 03:47:00,
2013-04-24 23:48:00,73.9,69.1,29.95,SSE,162,7.0,15.0,85,0.00,,,0.00,Wunderground v.1.15,2013-04-25 03:48:00,
2013-04-24 23:49:00,73.9,69.1,29.95,SSE,149,7.0,15.0,85,0.00,,,0.00,Wunderground v.1.15,2013-04-25 03:49:00,
2013-04-24 23:51:00,73.9,69.1,29.95,SSE,148,11.0,11.0,85,0.00,,,0.00,Wunderground v.1.15,2013-04-25 03:51:00,
2013-04-24 23:52:00,73.9,69.1,29.95,SSE,167,11.0,14.0,85,0.00,,,0.00,Wunderground v.1.15,2013-04-25 03:52:00,
2013-04-24 23:54:00,73.9,69.1,29.95,South,180,8.0,14.0,85,0.00,,,0.00,Wunderground v.1.15,2013-04-25 03:54:00,
2013-04-24 23:56:00,73.9,69.1,29.95,South,184,4.0,14.0,85,0.00,,,0.00,Wunderground v.1.15,2013-04-25 03:56:00,
2013-04-24 23:58:00,73.9,69.1,29.95,SSE,166,12.0,14.0,85,0.00,,,0.00,Wunderground v.1.15,2013-04-25 03:58:00,
2013-04-24 23:59:00,73.9,69.1,29.95,SSE,167,8.0,14.0,85,0.00,,,0.00,Wunderground v.1.15,2013-04-25 03:59:00,